Wetterdaten: Sonntag, 19.03.2017
Datum Zeit Temp. Aussen Temp. o. S. +5cm Feuchte Auss BlattFeu 1 Luftdruck Regen Sonnenschein Regendauer Solar Windben Empfang
19.03.2017 00:00 9,7 C 9,4 C 8,3 C 98 % 15 lf 1009,3 hPa 0,0 l/m 0 min 2 min 0 W/m 8,4 km/h (2 Bft) 95,65 %
19.03.2017 00:02 9,7 C 9,4 C 8,3 C 98 % 15 lf 1009,2 hPa 0,0 l/m 0 min 2 min 0 W/m 8,4 km/h (2 Bft) 97,56 %
19.03.2017 00:06 9,7 C 9,4 C 8,3 C 98 % 15 lf 1009,3 hPa 0,0 l/m 0 min 2 min 0 W/m 12,6 km/h (3 Bft) 96,91 %
19.03.2017 00:08 9,7 C 9,4 C 8,3 C 98 % 15 lf 1009,2 hPa 0,0 l/m 0 min 0 min 0 W/m 8,4 km/h (2 Bft) 95,74 %
19.03.2017 00:10 9,7 C 9,4 C 8,3 C 98 % 15 lf 1009,1 hPa 0,0 l/m 0 min 2 min 0 W/m 8,4 km/h (2 Bft) 95,74 %
19.03.2017 00:12 9,7 C 9,4 C 8,3 C 98 % 15 lf 1009,1 hPa 0,2 l/m 0 min 2 min 0 W/m 10,5 km/h (2 Bft) 97,14 %
19.03.2017 00:14 9,7 C 9,4 C 8,3 C 98 % 15 lf 1009,0 hPa 0,0 l/m 0 min 2 min 0 W/m 10,5 km/h (2 Bft) 93,62 %
19.03.2017 00:16 9,7 C 9,4 C 8,3 C 98 % 15 lf 1008,9 hPa 0,0 l/m 0 min 2 min 0 W/m 12,6 km/h (3 Bft) 93,48 %
19.03.2017 00:18 9,7 C 9,4 C 8,3 C 98 % 15 lf 1009,0 hPa 0,0 l/m 0 min 2 min 0 W/m 10,5 km/h (2 Bft) 95,74 %
19.03.2017 00:20 9,7 C 9,4 C 8,3 C 98 % 15 lf 1009,0 hPa 0,0 l/m 0 min 2 min 0 W/m 10,5 km/h (2 Bft) 96,61 %
19.03.2017 00:22 9,7 C 9,4 C 8,3 C 98 % 15 lf 1009,0 hPa 0,2 l/m 0 min 2 min 0 W/m 10,5 km/h (2 Bft) 97,14 %
19.03.2017 00:24 9,6 C 9,4 C 8,3 C 98 % 15 lf 1009,0 hPa 0,0 l/m 0 min 2 min 0 W/m 12,6 km/h (3 Bft) 93,62 %
19.03.2017 00:26 9,6 C 9,4 C 8,3 C 98 % 15 lf 1009,0 hPa 0,0 l/m 0 min 2 min 0 W/m 8,4 km/h (2 Bft) 95,65 %
19.03.2017 00:28 9,6 C 9,4 C 8,3 C 98 % 15 lf 1009,1 hPa 0,0 l/m 0 min 2 min 0 W/m 10,5 km/h (2 Bft) 95,74 %
19.03.2017 00:30 9,6 C 9,4 C 8,3 C 98 % 15 lf 1009,1 hPa 0,0 l/m 0 min 2 min 0 W/m 8,4 km/h (2 Bft) 93,62 %
19.03.2017 00:32 9,6 C 9,4 C 8,3 C 98 % 15 lf 1009,0 hPa 0,0 l/m 0 min 2 min 0 W/m 8,4 km/h (2 Bft) 91,49 %
19.03.2017 00:34 9,6 C 9,4 C 8,3 C 98 % 15 lf 1009,0 hPa 0,0 l/m 0 min 2 min 0 W/m 10,5 km/h (2 Bft) 93,62 %
19.03.2017 00:36 9,6 C 9,4 C 8,3 C 98 % 15 lf 1009,1 hPa 0,0 l/m 0 min 2 min 0 W/m 8,4 km/h (2 Bft) 91,49 %
19.03.2017 00:38 9,6 C 9,4 C 8,3 C 98 % 15 lf 1009,0 hPa 0,0 l/m 0 min 2 min 0 W/m 8,4 km/h (2 Bft) 93,48 %
19.03.2017 00:40 9,6 C 9,4 C 8,3 C 98 % 15 lf 1009,1 hPa 0,0 l/m 0 min 2 min 0 W/m 8,4 km/h (2 Bft) 93,62 %
19.03.2017 00:42 9,6 C 9,4 C 8,3 C 98 % 15 lf 1009,1 hPa 0,0 l/m 0 min 2 min 0 W/m 8,4 km/h (2 Bft) 93,62 %
19.03.2017 00:44 9,6 C 9,4 C 8,3 C 98 % 15 lf 1009,2 hPa 0,0 l/m 0 min 2 min 0 W/m 8,4 km/h (2 Bft) 89,36 %
19.03.2017 00:46 9,6 C 9,4 C 8,3 C 98 % 15 lf 1009,2 hPa 0,0 l/m 0 min 2 min 0 W/m 8,4 km/h (2 Bft) 93,62 %
19.03.2017 00:48 9,6 C 9,4 C 8,3 C 98 % 15 lf 1009,3 hPa 0,0 l/m 0 min 2 min 0 W/m 12,6 km/h (3 Bft) 93,62 %
19.03.2017 00:50 9,6 C 9,4 C 8,3 C 98 % 15 lf 1009,3 hPa 0,0 l/m 0 min 2 min 0 W/m 8,4 km/h (2 Bft) 95,65 %
19.03.2017 00:52 9,6 C 9,4 C 8,3 C 98 % 15 lf 1009,3 hPa 0,0 l/m 0 min 2 min 0 W/m 6,3 km/h (2 Bft) 93,62 %
19.03.2017 00:54 9,6 C 9,4 C 8,3 C 98 % 15 lf 1009,2 hPa 0,2 l/m 0 min 2 min 0 W/m 12,6 km/h (3 Bft) 93,62 %
19.03.2017 00:56 9,6 C 9,4 C 8,3 C 98 % 15 lf 1009,2 hPa 0,0 l/m 0 min 2 min 0 W/m 10,5 km/h (2 Bft) 95,74 %
19.03.2017 00:58 9,6 C 9,4 C 8,3 C 98 % 15 lf 1009,2 hPa 0,2 l/m 0 min 2 min 0 W/m 10,5 km/h (2 Bft) 93,62 %
19.03.2017 01:00 9,6 C 9,4 C 8,3 C 98 % 15 lf 1009,3 hPa 0,0 l/m 0 min 2 min 0 W/m 12,6 km/h (3 Bft) 93,62 %
19.03.2017 01:02 9,6 C 9,4 C 8,3 C 98 % 15 lf 1009,2 hPa 0,0 l/m 0 min 2 min 0 W/m 10,5 km/h (2 Bft) 89,13 %
19.03.2017 01:04 9,6 C 9,4 C 8,3 C 98 % 15 lf 1009,2 hPa 0,0 l/m 0 min 2 min 0 W/m 10,5 km/h (2 Bft) 93,62 %
19.03.2017 01:06 9,6 C 9,4 C 8,3 C 98 % 15 lf 1009,2 hPa 0,0 l/m 0 min 2 min 0 W/m 10,5 km/h (2 Bft) 97,87 %
19.03.2017 01:08 9,6 C 9,4 C 8,3 C 98 % 15 lf 1009,2 hPa 0,0 l/m 0 min 2 min 0 W/m 10,5 km/h (2 Bft) 93,62 %
19.03.2017 01:10 9,6 C 9,4 C 8,3 C 98 % 15 lf 1009,3 hPa 0,2 l/m 0 min 2 min 0 W/m 10,5 km/h (2 Bft) 95,74 %
19.03.2017 01:12 9,6 C 9,4 C 8,3 C 98 % 15 lf 1009,3 hPa 0,0 l/m 0 min 2 min 0 W/m 8,4 km/h (2 Bft) 97,87 %
19.03.2017 01:14 9,6 C 9,4 C 8,3 C 98 % 15 lf 1009,3 hPa 0,0 l/m 0 min 0 min 0 W/m 10,5 km/h (2 Bft) 95,65 %
19.03.2017 01:16 9,6 C 9,4 C 8,3 C 98 % 15 lf 1009,3 hPa 0,0 l/m 0 min 2 min 0 W/m 12,6 km/h (3 Bft) 91,49 %
19.03.2017 01:18 9,6 C 9,4 C 8,3 C 98 % 15 lf 1009,3 hPa 0,0 l/m 0 min 2 min 0 W/m 12,6 km/h (3 Bft) 95,74 %
19.03.2017 01:20 9,6 C 9,4 C 8,3 C 98 % 15 lf 1009,2 hPa 0,0 l/m 0 min 2 min 0 W/m 12,6 km/h (3 Bft) 95,74 %
19.03.2017 01:22 9,6 C 9,4 C 8,3 C 98 % 15 lf 1009,2 hPa 0,0 l/m 0 min 2 min 0 W/m 10,5 km/h (2 Bft) 95,74 %
19.03.2017 01:24 9,6 C 9,4 C 8,3 C 98 % 15 lf 1009,3 hPa 0,2 l/m 0 min 2 min 0 W/m 10,5 km/h (2 Bft) 91,49 %
19.03.2017 01:26 9,6 C 9,4 C 8,3 C 99 % 15 lf 1009,1 hPa 0,0 l/m 0 min 2 min 0 W/m 12,6 km/h (3 Bft) 91,30 %
19.03.2017 01:28 9,5 C 9,4 C 8,3 C 99 % 15 lf 1009,0 hPa 0,0 l/m 0 min 2 min 0 W/m 10,5 km/h (2 Bft) 93,62 %
19.03.2017 01:30 9,6 C 9,4 C 8,3 C 99 % 15 lf 1009,1 hPa 0,0 l/m 0 min 0 min 0 W/m 10,5 km/h (2 Bft) 95,74 %
19.03.2017 01:32 9,5 C 9,4 C 8,3 C 99 % 15 lf 1009,1 hPa 0,0 l/m 0 min 2 min 0 W/m 14,6 km/h (3 Bft) 91,49 %
19.03.2017 01:34 9,6 C 9,4 C 8,3 C 99 % 15 lf 1009,0 hPa 0,0 l/m 0 min 2 min 0 W/m 10,5 km/h (2 Bft) 95,74 %
19.03.2017 01:36 9,5 C 9,4 C 8,3 C 99 % 15 lf 1008,9 hPa 0,0 l/m 0 min 0 min 0 W/m 8,4 km/h (2 Bft) 94,44 %
19.03.2017 01:38 9,5 C 9,4 C 8,3 C 99 % 15 lf 1008,9 hPa 0,0 l/m 0 min 0 min 0 W/m 12,6 km/h (3 Bft) 95,74 %
19.03.2017 01:40 9,5 C 9,4 C 8,3 C 99 % 15 lf 1008,9 hPa 0,0 l/m 0 min 0 min 0 W/m 12,6 km/h (3 Bft) 97,87 %
19.03.2017 01:42 9,5 C 9,4 C 8,3 C 99 % 15 lf 1009,0 hPa 0,0 l/m 0 min 0 min 0 W/m 12,6 km/h (3 Bft) 89,36 %
19.03.2017 01:44 9,5 C 9,4 C 8,3 C 99 % 15 lf 1009,0 hPa 0,0 l/m 0 min 0 min 0 W/m 12,6 km/h (3 Bft) 95,65 %
19.03.2017 01:46 9,5 C 9,4 C 8,3 C 99 % 15 lf 1008,9 hPa 0,0 l/m 0 min 0 min 0 W/m 10,5 km/h (2 Bft) 97,87 %
19.03.2017 01:48 9,5 C 9,4 C 8,3 C 99 % 15 lf 1008,9 hPa 0,0 l/m 0 min 2 min 0 W/m 10,5 km/h (2 Bft) 95,74 %
19.03.2017 01:50 9,5 C 9,4 C 8,3 C 99 % 15 lf 1008,9 hPa 0,0 l/m 0 min 0 min 0 W/m 10,5 km/h (2 Bft) 97,87 %
19.03.2017 01:52 9,5 C 9,4 C 8,3 C 99 % 15 lf 1008,9 hPa 0,0 l/m 0 min 0 min 0 W/m 14,6 km/h (3 Bft) 93,62 %
19.03.2017 01:54 9,5 C 9,4 C 8,3 C 99 % 15 lf 1008,9 hPa 0,2 l/m 0 min 0 min 0 W/m 12,6 km/h (3 Bft) 93,62 %
19.03.2017 01:56 9,5 C 9,4 C 8,3 C 99 % 15 lf 1009,1 hPa 0,0 l/m 0 min 0 min 0 W/m 12,6 km/h (3 Bft) 93,48 %
19.03.2017 01:58 9,5 C 9,4 C 8,3 C 99 % 15 lf 1009,0 hPa 0,0 l/m 0 min 0 min 0 W/m 12,6 km/h (3 Bft) 97,87 %
19.03.2017 02:00 9,5 C 9,4 C 8,3 C 99 % 15 lf 1009,0 hPa 0,0 l/m 0 min 2 min 0 W/m 10,5 km/h (2 Bft) 95,74 %
19.03.2017 02:02 9,5 C 9,4 C 8,3 C 99 % 15 lf 1009,0 hPa 0,0 l/m 0 min 0 min 0 W/m 14,6 km/h (3 Bft) 97,87 %
19.03.2017 02:04 9,5 C 9,4 C 8,3 C 99 % 15 lf 1009,2 hPa 0,0 l/m 0 min 0 min 0 W/m 10,5 km/h (2 Bft) 100,00 %
19.03.2017 02:06 9,5 C 9,4 C 8,3 C 99 % 15 lf 1009,2 hPa 0,0 l/m 0 min 0 min 0 W/m 12,6 km/h (3 Bft) 97,87 %
19.03.2017 02:08 9,5 C 9,4 C 8,3 C 99 % 15 lf 1009,3 hPa 0,0 l/m 0 min 0 min 0 W/m 8,4 km/h (2 Bft) 95,65 %
19.03.2017 02:10 9,5 C 9,4 C 8,3 C 99 % 15 lf 1009,2 hPa 0,0 l/m 0 min 2 min 0 W/m 10,5 km/h (2 Bft) 100,00 %
19.03.2017 02:12 9,5 C 9,4 C 8,3 C 99 % 15 lf 1009,1 hPa 0,0 l/m 0 min 0 min 0 W/m 10,5 km/h (2 Bft) 95,74 %
19.03.2017 02:14 9,5 C 9,4 C 8,3 C 99 % 15 lf 1009,0 hPa 0,0 l/m 0 min 0 min 0 W/m 12,6 km/h (3 Bft) 100,00 %
19.03.2017 02:16 9,5 C 9,4 C 8,3 C 99 % 15 lf 1009,0 hPa 0,0 l/m 0 min 0 min 0 W/m 12,6 km/h (3 Bft) 97,87 %
19.03.2017 02:18 9,5 C 9,4 C 8,3 C 99 % 15 lf 1009,0 hPa 0,0 l/m 0 min 2 min 0 W/m 10,5 km/h (2 Bft) 97,87 %
19.03.2017 02:20 9,5 C 9,4 C 8,3 C 99 % 15 lf 1008,9 hPa 0,2 l/m 0 min 0 min 0 W/m 8,4 km/h (2 Bft) 95,65 %
19.03.2017 02:22 9,4 C 9,4 C 8,3 C 99 % 15 lf 1008,9 hPa 0,0 l/m 0 min 0 min 0 W/m 8,4 km/h (2 Bft) 95,83 %
19.03.2017 02:24 9,5 C 9,4 C 8,3 C 99 % 15 lf 1009,0 hPa 0,0 l/m 0 min 0 min 0 W/m 10,5 km/h (2 Bft) 95,74 %
19.03.2017 02:26 9,5 C 9,4 C 8,3 C 99 % 15 lf 1009,0 hPa 0,0 l/m 0 min 0 min 0 W/m 10,5 km/h (2 Bft) 97,87 %
19.03.2017 02:28 9,5 C 9,4 C 8,3 C 99 % 15 lf 1009,0 hPa 0,0 l/m 0 min 0 min 0 W/m 16,7 km/h (3 Bft) 95,74 %
19.03.2017 02:30 9,5 C 9,4 C 8,3 C 99 % 15 lf 1008,9 hPa 0,0 l/m 0 min 0 min 0 W/m 10,5 km/h (2 Bft) 91,49 %
19.03.2017 02:32 9,5 C 9,4 C 8,3 C 99 % 15 lf 1008,9 hPa 0,0 l/m 0 min 0 min 0 W/m 10,5 km/h (2 Bft) 95,65 %
19.03.2017 02:34 9,5 C 9,4 C 8,3 C 99 % 15 lf 1008,7 hPa 0,0 l/m 0 min 0 min 0 W/m 8,4 km/h (2 Bft) 97,87 %
19.03.2017 02:36 9,5 C 9,4 C 8,3 C 99 % 15 lf 1008,7 hPa 0,0 l/m 0 min 0 min 0 W/m 12,6 km/h (3 Bft) 97,87 %
19.03.2017 02:38 9,5 C 9,4 C 8,3 C 99 % 15 lf 1008,8 hPa 0,0 l/m 0 min 0 min 0 W/m 8,4 km/h (2 Bft) 95,74 %
19.03.2017 02:40 9,5 C 9,4 C 8,3 C 99 % 15 lf 1008,8 hPa 0,0 l/m 0 min 0 min 0 W/m 14,6 km/h (3 Bft) 93,62 %
19.03.2017 02:42 9,5 C 9,4 C 8,3 C 99 % 15 lf 1008,8 hPa 0,0 l/m 0 min 0 min 0 W/m 10,5 km/h (2 Bft) 95,74 %
19.03.2017 02:44 9,5 C 9,4 C 8,3 C 99 % 15 lf 1008,8 hPa 0,0 l/m 0 min 0 min 0 W/m 10,5 km/h (2 Bft) 93,48 %
19.03.2017 02:46 9,5 C 9,4 C 8,3 C 99 % 15 lf 1008,6 hPa 0,0 l/m 0 min 0 min 0 W/m 10,5 km/h (2 Bft) 95,74 %
19.03.2017 02:48 9,5 C 9,4 C 8,3 C 99 % 15 lf 1008,6 hPa 0,0 l/m 0 min 0 min 0 W/m 10,5 km/h (2 Bft) 97,87 %
19.03.2017 02:50 9,5 C 9,4 C 8,3 C 99 % 15 lf 1008,8 hPa 0,0 l/m 0 min 0 min 0 W/m 10,5 km/h (2 Bft) 97,87 %
19.03.2017 02:52 9,5 C 9,4 C 8,3 C 99 % 15 lf 1008,8 hPa 0,0 l/m 0 min 0 min 0 W/m 12,6 km/h (3 Bft) 91,49 %
19.03.2017 02:54 9,5 C 9,4 C 8,3 C 99 % 15 lf 1008,9 hPa 0,0 l/m 0 min 0 min 0 W/m 10,5 km/h (2 Bft) 97,83 %
19.03.2017 02:56 9,5 C 9,4 C 8,3 C 99 % 15 lf 1008,9 hPa 0,0 l/m 0 min 0 min 0 W/m 12,6 km/h (3 Bft) 95,74 %
19.03.2017 02:58 9,5 C 9,4 C 8,3 C 99 % 15 lf 1008,8 hPa 0,0 l/m 0 min 0 min 0 W/m 10,5 km/h (2 Bft) 97,87 %
19.03.2017 03:00 9,5 C 9,4 C 8,3 C 99 % 15 lf 1008,9 hPa 0,0 l/m 0 min 0 min 0 W/m 10,5 km/h (2 Bft) 97,87 %
19.03.2017 03:02 9,6 C 9,4 C 8,3 C 99 % 15 lf 1008,8 hPa 0,0 l/m 0 min 2 min 0 W/m 10,5 km/h (2 Bft) 97,87 %
19.03.2017 03:04 9,5 C 9,4 C 8,3 C 99 % 15 lf 1008,7 hPa 0,0 l/m 0 min 2 min 0 W/m 12,6 km/h (3 Bft) 95,74 %
19.03.2017 03:06 9,6 C 9,4 C 8,3 C 99 % 15 lf 1008,7 hPa 0,0 l/m 0 min 2 min 0 W/m 12,6 km/h (3 Bft) 97,83 %
19.03.2017 03:08 9,6 C 9,4 C 8,3 C 99 % 15 lf 1008,6 hPa 0,0 l/m 0 min 0 min 0 W/m 12,6 km/h (3 Bft) 97,87 %
19.03.2017 03:10 9,6 C 9,4 C 8,3 C 99 % 15 lf 1008,6 hPa 0,0 l/m 0 min 0 min 0 W/m 10,5 km/h (2 Bft) 97,87 %
19.03.2017 03:12 9,6 C 9,4 C 8,3 C 99 % 15 lf 1008,6 hPa 0,2 l/m 0 min 0 min 0 W/m 12,6 km/h (3 Bft) 95,74 %
19.03.2017 03:14 9,6 C 9,4 C 8,3 C 99 % 15 lf 1008,6 hPa 0,0 l/m 0 min 0 min 0 W/m 14,6 km/h (3 Bft) 97,87 %
19.03.2017 03:16 9,6 C 10,0 C 8,3 C 99 % 15 lf 1008,7 hPa 0,0 l/m 0 min 0 min 0 W/m 14,6 km/h (3 Bft) 97,87 %
19.03.2017 03:18 9,7 C 10,0 C 8,3 C 99 % 15 lf 1008,6 hPa 0,0 l/m 0 min 0 min 0 W/m 16,7 km/h (3 Bft) 97,83 %
19.03.2017 03:20 9,7 C 10,0 C 8,3 C 99 % 15 lf 1008,6 hPa 0,0 l/m 0 min 0 min 0 W/m 16,7 km/h (3 Bft) 95,74 %
19.03.2017 03:22 9,7 C 10,0 C 8,9 C 99 % 15 lf 1008,6 hPa 0,0 l/m 0 min 0 min 0 W/m 14,6 km/h (3 Bft) 95,74 %
19.03.2017 03:24 9,7 C 10,0 C 8,9 C 99 % 15 lf 1008,6 hPa 0,0 l/m 0 min 0 min 0 W/m 20,9 km/h (4 Bft) 93,62 %
19.03.2017 03:26 9,8 C 10,0 C 8,9 C 99 % 15 lf 1008,6 hPa 0,0 l/m 0 min 0 min 0 W/m 12,6 km/h (3 Bft) 95,74 %
19.03.2017 03:28 9,8 C 10,0 C 8,9 C 99 % 15 lf 1008,5 hPa 0,0 l/m 0 min 0 min 0 W/m 18,8 km/h (3 Bft) 97,87 %
19.03.2017 03:30 9,8 C 10,0 C 8,9 C 99 % 15 lf 1008,6 hPa 0,0 l/m 0 min 0 min 0 W/m 16,7 km/h (3 Bft) 97,83 %
19.03.2017 03:32 9,9 C 10,0 C 8,9 C 99 % 15 lf 1008,5 hPa 0,0 l/m 0 min 0 min 0 W/m 16,7 km/h (3 Bft) 97,96 %
19.03.2017 03:34 9,9 C 10,0 C 8,9 C 99 % 15 lf 1008,5 hPa 0,0 l/m 0 min 0 min 0 W/m 16,7 km/h (3 Bft) 100,00 %
19.03.2017 03:36 9,9 C 10,0 C 8,9 C 99 % 15 lf 1008,6 hPa 0,0 l/m 0 min 2 min 0 W/m 14,6 km/h (3 Bft) 95,74 %
19.03.2017 03:38 9,9 C 10,0 C 8,9 C 99 % 15 lf 1008,5 hPa 0,0 l/m 0 min 2 min 0 W/m 18,8 km/h (3 Bft) 95,74 %
19.03.2017 03:40 10,0 C 10,0 C 8,9 C 99 % 15 lf 1008,5 hPa 0,0 l/m 0 min 2 min 0 W/m 14,6 km/h (3 Bft) 100,00 %
19.03.2017 03:42 10,1 C 10,0 C 8,9 C 99 % 15 lf 1008,5 hPa 0,0 l/m 0 min 0 min 0 W/m 20,9 km/h (4 Bft) 100,00 %
19.03.2017 03:44 10,1 C 10,0 C 8,9 C 99 % 15 lf 1008,4 hPa 0,0 l/m 0 min 0 min 0 W/m 16,7 km/h (3 Bft) 100,00 %
19.03.2017 03:46 10,1 C 10,0 C 8,9 C 99 % 15 lf 1008,4 hPa 0,0 l/m 0 min 0 min 0 W/m 16,7 km/h (3 Bft) 97,87 %
19.03.2017 03:48 10,1 C 10,0 C 8,9 C 99 % 15 lf 1008,4 hPa 0,0 l/m 0 min 0 min 0 W/m 18,8 km/h (3 Bft) 95,74 %
19.03.2017 03:50 10,2 C 10,0 C 8,9 C 99 % 15 lf 1008,5 hPa 0,0 l/m 0 min 0 min 0 W/m 14,6 km/h (3 Bft) 97,87 %
19.03.2017 03:52 10,2 C 10,6 C 8,9 C 99 % 15 lf 1008,4 hPa 0,0 l/m 0 min 0 min 0 W/m 16,7 km/h (3 Bft) 97,83 %
19.03.2017 03:54 10,2 C 10,6 C 8,9 C 99 % 15 lf 1008,4 hPa 0,0 l/m 0 min 0 min 0 W/m 16,7 km/h (3 Bft) 100,00 %
19.03.2017 03:56 10,2 C 10,6 C 8,9 C 99 % 15 lf 1008,4 hPa 0,0 l/m 0 min 0 min 0 W/m 14,6 km/h (3 Bft) 95,74 %
19.03.2017 03:58 10,2 C 10,6 C 8,9 C 99 % 15 lf 1008,4 hPa 0,0 l/m 0 min 0 min 0 W/m 18,8 km/h (3 Bft) 93,62 %
19.03.2017 04:00 10,2 C 10,6 C 8,9 C 99 % 15 lf 1008,3 hPa 0,0 l/m 0 min 0 min 0 W/m 16,7 km/h (3 Bft) 100,00 %
19.03.2017 04:02 10,3 C 10,6 C 8,9 C 99 % 15 lf 1008,3 hPa 0,0 l/m 0 min 0 min 0 W/m 16,7 km/h (3 Bft) 97,44 %
19.03.2017 04:04 10,3 C 10,6 C 8,9 C 99 % 15 lf 1008,3 hPa 0,0 l/m 0 min 0 min 0 W/m 18,8 km/h (3 Bft) 100,00 %
19.03.2017 04:06 10,3 C 10,6 C 8,9 C 99 % 15 lf 1008,4 hPa 0,0 l/m 0 min 0 min 0 W/m 23,0 km/h (4 Bft) 93,62 %
19.03.2017 04:08 10,4 C 10,6 C 9,4 C 99 % 15 lf 1008,4 hPa 0,0 l/m 0 min 0 min 0 W/m 25,1 km/h (4 Bft) 97,87 %
19.03.2017 04:10 10,4 C 10,6 C 9,4 C 99 % 15 lf 1008,5 hPa 0,0 l/m 0 min 0 min 0 W/m 18,8 km/h (3 Bft) 95,74 %
19.03.2017 04:12 10,4 C 10,6 C 9,4 C 99 % 15 lf 1008,4 hPa 0,0 l/m 0 min 0 min 0 W/m 18,8 km/h (3 Bft) 94,74 %
19.03.2017 04:14 10,4 C 10,6 C 9,4 C 99 % 15 lf 1008,3 hPa 0,0 l/m 0 min 0 min 0 W/m 23,0 km/h (4 Bft) 93,62 %
19.03.2017 04:16 10,4 C 10,6 C 9,4 C 99 % 15 lf 1008,3 hPa 0,0 l/m 0 min 0 min 0 W/m 23,0 km/h (4 Bft) 95,74 %
19.03.2017 04:18 10,4 C 10,6 C 9,4 C 99 % 15 lf 1008,4 hPa 0,0 l/m 0 min 0 min 0 W/m 23,0 km/h (4 Bft) 93,48 %
19.03.2017 04:20 10,5 C 10,6 C 9,4 C 99 % 15 lf 1008,4 hPa 0,0 l/m 0 min 0 min 0 W/m 16,7 km/h (3 Bft) 95,74 %
19.03.2017 04:22 10,5 C 10,6 C 9,4 C 99 % 15 lf 1008,4 hPa 0,0 l/m 0 min 0 min 0 W/m 20,9 km/h (4 Bft) 91,49 %
19.03.2017 04:24 10,5 C 10,6 C 9,4 C 99 % 15 lf 1008,3 hPa 0,0 l/m 0 min 0 min 0 W/m 18,8 km/h (3 Bft) 93,62 %
19.03.2017 04:26 10,5 C 10,6 C 9,4 C 99 % 15 lf 1008,3 hPa 0,0 l/m 0 min 0 min 0 W/m 20,9 km/h (4 Bft) 93,62 %
19.03.2017 04:28 10,6 C 10,6 C 9,4 C 99 % 15 lf 1008,4 hPa 0,0 l/m 0 min 0 min 0 W/m 25,1 km/h (4 Bft) 91,49 %
19.03.2017 04:30 10,6 C 10,6 C 9,4 C 99 % 15 lf 1008,4 hPa 0,0 l/m 0 min 0 min 0 W/m 20,9 km/h (4 Bft) 91,30 %
19.03.2017 04:32 10,6 C 10,6 C 9,4 C 99 % 15 lf 1008,4 hPa 0,0 l/m 0 min 2 min 0 W/m 25,1 km/h (4 Bft) 93,88 %
19.03.2017 04:34 10,6 C 10,6 C 9,4 C 99 % 15 lf 1008,4 hPa 0,0 l/m 0 min 2 min 0 W/m 14,6 km/h (3 Bft) 93,62 %
19.03.2017 04:36 10,6 C 10,6 C 9,4 C 99 % 15 lf 1008,5 hPa 0,2 l/m 0 min 0 min 0 W/m 18,8 km/h (3 Bft) 93,62 %
19.03.2017 04:38 10,6 C 10,6 C 9,4 C 99 % 15 lf 1008,5 hPa 0,0 l/m 0 min 0 min 0 W/m 25,1 km/h (4 Bft) 89,36 %
19.03.2017 04:40 10,6 C 10,6 C 9,4 C 99 % 15 lf 1008,5 hPa 0,0 l/m 0 min 2 min 0 W/m 20,9 km/h (4 Bft) 91,49 %
19.03.2017 04:42 10,6 C 10,6 C 9,4 C 99 % 15 lf 1008,5 hPa 0,0 l/m 0 min 0 min 0 W/m 23,0 km/h (4 Bft) 91,30 %
19.03.2017 04:44 10,6 C 10,6 C 9,4 C 99 % 15 lf 1008,5 hPa 0,0 l/m 0 min 0 min 0 W/m 23,0 km/h (4 Bft) 95,74 %
19.03.2017 04:46 10,6 C 10,6 C 9,4 C 99 % 15 lf 1008,4 hPa 0,0 l/m 0 min 0 min 0 W/m 18,8 km/h (3 Bft) 93,62 %
19.03.2017 04:48 10,6 C 10,6 C 9,4 C 99 % 15 lf 1008,4 hPa 0,0 l/m 0 min 0 min 0 W/m 20,9 km/h (4 Bft) 95,74 %
19.03.2017 04:50 10,6 C 10,6 C 9,4 C 99 % 15 lf 1008,3 hPa 0,0 l/m 0 min 2 min 0 W/m 18,8 km/h (3 Bft) 95,74 %
19.03.2017 04:52 10,6 C 10,6 C 9,4 C 99 % 15 lf 1008,3 hPa 0,0 l/m 0 min 2 min 0 W/m 20,9 km/h (4 Bft) 95,74 %
19.03.2017 04:54 10,6 C 10,6 C 9,4 C 99 % 15 lf 1008,2 hPa 0,0 l/m 0 min 2 min 0 W/m 23,0 km/h (4 Bft) 97,83 %
19.03.2017 04:56 10,6 C 10,6 C 9,4 C 99 % 15 lf 1008,2 hPa 0,0 l/m 0 min 2 min 0 W/m 23,0 km/h (4 Bft) 97,87 %
19.03.2017 04:58 10,6 C 10,6 C 9,4 C 99 % 15 lf 1008,2 hPa 0,0 l/m 0 min 0 min 0 W/m 20,9 km/h (4 Bft) 97,87 %
19.03.2017 05:00 10,6 C 10,6 C 9,4 C 99 % 15 lf 1008,2 hPa 0,0 l/m 0 min 0 min 0 W/m 16,7 km/h (3 Bft) 97,87 %
19.03.2017 05:02 10,6 C 10,6 C 9,4 C 99 % 15 lf 1008,2 hPa 0,0 l/m 0 min 2 min 0 W/m 25,1 km/h (4 Bft) 93,62 %
19.03.2017 05:04 10,6 C 10,6 C 9,4 C 99 % 15 lf 1008,2 hPa 0,0 l/m 0 min 2 min 0 W/m 25,1 km/h (4 Bft) 93,48 %
19.03.2017 05:06 10,6 C 10,6 C 9,4 C 99 % 15 lf 1008,2 hPa 0,0 l/m 0 min 0 min 0 W/m 25,1 km/h (4 Bft) 97,87 %
19.03.2017 05:08 10,6 C 10,6 C 9,4 C 99 % 15 lf 1008,1 hPa 0,0 l/m 0 min 2 min 0 W/m 25,1 km/h (4 Bft) 97,87 %
19.03.2017 05:10 10,6 C 10,6 C 9,4 C 99 % 15 lf 1008,1 hPa 0,0 l/m 0 min 2 min 0 W/m 18,8 km/h (3 Bft) 97,87 %
19.03.2017 05:12 10,6 C 10,6 C 9,4 C 99 % 15 lf 1008,1 hPa 0,0 l/m 0 min 2 min 0 W/m 18,8 km/h (3 Bft) 97,87 %
19.03.2017 05:14 10,6 C 10,6 C 9,4 C 99 % 15 lf 1008,1 hPa 0,0 l/m 0 min 0 min 0 W/m 20,9 km/h (4 Bft) 93,62 %
19.03.2017 05:16 10,6 C 10,6 C 9,4 C 99 % 15 lf 1008,1 hPa 0,0 l/m 0 min 2 min 0 W/m 29,3 km/h (5 Bft) 95,65 %
19.03.2017 05:18 10,6 C 10,6 C 9,4 C 99 % 15 lf 1008,1 hPa 0,0 l/m 0 min 2 min 0 W/m 23,0 km/h (4 Bft) 95,74 %
19.03.2017 05:20 10,6 C 10,6 C 9,4 C 99 % 15 lf 1008,2 hPa 0,0 l/m 0 min 0 min 0 W/m 25,1 km/h (4 Bft) 97,87 %
19.03.2017 05:22 10,6 C 10,6 C 9,4 C 99 % 15 lf 1008,2 hPa 0,0 l/m 0 min 2 min 0 W/m 20,9 km/h (4 Bft) 97,87 %
19.03.2017 05:24 10,6 C 10,6 C 9,4 C 99 % 15 lf 1008,2 hPa 0,0 l/m 0 min 0 min 0 W/m 27,2 km/h (4 Bft) 95,74 %
19.03.2017 05:26 10,6 C 10,6 C 9,4 C 99 % 15 lf 1008,1 hPa 0,0 l/m 0 min 2 min 0 W/m 27,2 km/h (4 Bft) 97,87 %
19.03.2017 05:28 10,6 C 10,6 C 9,4 C 99 % 15 lf 1008,2 hPa 0,0 l/m 0 min 2 min 0 W/m 20,9 km/h (4 Bft) 91,30 %
19.03.2017 05:30 10,6 C 10,6 C 9,4 C 99 % 15 lf 1008,2 hPa 0,0 l/m 0 min 0 min 0 W/m 25,1 km/h (4 Bft) 95,74 %
19.03.2017 05:32 10,6 C 10,6 C 9,4 C 99 % 15 lf 1008,2 hPa 0,0 l/m 0 min 0 min 0 W/m 18,8 km/h (3 Bft) 100,00 %
19.03.2017 05:34 10,6 C 10,6 C 9,4 C 99 % 15 lf 1008,2 hPa 0,0 l/m 0 min 0 min 0 W/m 27,2 km/h (4 Bft) 97,87 %
19.03.2017 05:36 10,6 C 10,6 C 9,4 C 99 % 15 lf 1008,2 hPa 0,0 l/m 0 min 2 min 0 W/m 23,0 km/h (4 Bft) 93,62 %
19.03.2017 05:38 10,6 C 10,6 C 9,4 C 99 % 15 lf 1008,1 hPa 0,0 l/m 0 min 0 min 0 W/m 23,0 km/h (4 Bft) 97,87 %
19.03.2017 05:40 10,6 C 10,6 C 9,4 C 99 % 15 lf 1008,2 hPa 0,0 l/m 0 min 0 min 0 W/m 18,8 km/h (3 Bft) 100,00 %
19.03.2017 05:42 10,6 C 10,6 C 9,4 C 99 % 15 lf 1008,2 hPa 0,0 l/m 0 min 0 min 0 W/m 29,3 km/h (5 Bft) 100,00 %
19.03.2017 05:44 10,6 C 10,6 C 9,4 C 99 % 15 lf 1008,2 hPa 0,0 l/m 0 min 0 min 0 W/m 27,2 km/h (4 Bft) 91,49 %
19.03.2017 05:46 10,6 C 10,6 C 9,4 C 99 % 15 lf 1008,1 hPa 0,0 l/m 0 min 2 min 0 W/m 18,8 km/h (3 Bft) 95,74 %
19.03.2017 05:48 10,6 C 10,6 C 9,4 C 99 % 15 lf 1008,1 hPa 0,0 l/m 0 min 0 min 0 W/m 16,7 km/h (3 Bft) 97,87 %
19.03.2017 05:50 10,6 C 10,6 C 9,4 C 99 % 15 lf 1008,2 hPa 0,0 l/m 0 min 2 min 0 W/m 20,9 km/h (4 Bft) 93,62 %
19.03.2017 05:52 10,6 C 10,6 C 9,4 C 99 % 15 lf 1008,2 hPa 0,0 l/m 0 min 2 min 0 W/m 25,1 km/h (4 Bft) 93,48 %
19.03.2017 05:54 10,6 C 10,6 C 9,4 C 99 % 15 lf 1008,1 hPa 0,0 l/m 0 min 2 min 0 W/m 25,1 km/h (4 Bft) 95,74 %
19.03.2017 05:56 10,6 C 10,6 C 9,4 C 99 % 15 lf 1008,2 hPa 0,0 l/m 0 min 0 min 0 W/m 29,3 km/h (5 Bft) 97,87 %
19.03.2017 05:58 10,6 C 10,6 C 9,4 C 99 % 15 lf 1008,1 hPa 0,0 l/m 0 min 2 min 0 W/m 20,9 km/h (4 Bft) 93,62 %
19.03.2017 06:00 10,6 C 10,6 C 9,4 C 99 % 15 lf 1008,2 hPa 0,0 l/m 0 min 0 min 0 W/m 23,0 km/h (4 Bft) 97,87 %
19.03.2017 06:03 10,6 C 10,6 C 9,4 C 99 % 15 lf 1008,2 hPa 0,0 l/m 0 min 2 min 0 W/m 31,4 km/h (5 Bft) 97,14 %
19.03.2017 06:04 10,6 C 10,6 C 9,4 C 99 % 15 lf 1008,2 hPa 0,0 l/m 0 min 1 min 0 W/m 18,8 km/h (3 Bft) 97,14 %
19.03.2017 06:06 10,6 C 10,6 C 9,4 C 99 % 15 lf 1008,2 hPa 0,0 l/m 0 min 2 min 0 W/m 27,2 km/h (4 Bft) 94,81 %
19.03.2017 06:08 10,6 C 10,6 C 9,4 C 99 % 15 lf 1008,1 hPa 0,0 l/m 0 min 2 min 0 W/m 20,9 km/h (4 Bft) 95,74 %
19.03.2017 06:10 10,6 C 10,6 C 9,4 C 99 % 15 lf 1008,1 hPa 0,0 l/m 0 min 2 min 0 W/m 20,9 km/h (4 Bft) 95,74 %
19.03.2017 06:12 10,6 C 10,6 C 9,4 C 99 % 15 lf 1008,2 hPa 0,0 l/m 0 min 2 min 0 W/m 20,9 km/h (4 Bft) 95,74 %
19.03.2017 06:14 10,6 C 10,6 C 9,4 C 99 % 15 lf 1008,2 hPa 0,0 l/m 0 min 2 min 0 W/m 23,0 km/h (4 Bft) 93,48 %
19.03.2017 06:16 10,6 C 10,6 C 9,4 C 99 % 15 lf 1008,3 hPa 0,0 l/m 0 min 2 min 0 W/m 25,1 km/h (4 Bft) 95,74 %
19.03.2017 06:18 10,6 C 10,6 C 9,4 C 99 % 15 lf 1008,2 hPa 0,0 l/m 0 min 2 min 0 W/m 35,6 km/h (5 Bft) 95,74 %
19.03.2017 06:20 10,6 C 10,6 C 9,4 C 99 % 15 lf 1008,3 hPa 0,0 l/m 0 min 2 min 0 W/m 33,5 km/h (5 Bft) 95,74 %
19.03.2017 06:22 10,6 C 10,6 C 9,4 C 99 % 15 lf 1008,3 hPa 0,0 l/m 0 min 2 min 0 W/m 27,2 km/h (4 Bft) 95,74 %
19.03.2017 06:24 10,6 C 10,6 C 9,4 C 99 % 15 lf 1008,3 hPa 0,0 l/m 0 min 0 min 0 W/m 27,2 km/h (4 Bft) 91,49 %
19.03.2017 06:26 10,6 C 10,6 C 9,4 C 99 % 15 lf 1008,2 hPa 0,0 l/m 0 min 2 min 0 W/m 29,3 km/h (5 Bft) 93,48 %
19.03.2017 06:28 10,6 C 10,6 C 9,4 C 99 % 15 lf 1008,3 hPa 0,0 l/m 0 min 2 min 0 W/m 31,4 km/h (5 Bft) 95,74 %
19.03.2017 06:30 10,6 C 10,6 C 9,4 C 99 % 15 lf 1008,2 hPa 0,0 l/m 0 min 2 min 0 W/m 25,1 km/h (4 Bft) 93,62 %
19.03.2017 06:32 10,6 C 10,6 C 9,4 C 99 % 15 lf 1008,3 hPa 0,0 l/m 0 min 2 min 0 W/m 23,0 km/h (4 Bft) 95,74 %
19.03.2017 06:34 10,6 C 10,6 C 9,4 C 99 % 15 lf 1008,3 hPa 0,0 l/m 0 min 2 min 0 W/m 25,1 km/h (4 Bft) 97,87 %
19.03.2017 06:36 10,6 C 10,6 C 9,4 C 99 % 15 lf 1008,3 hPa 0,0 l/m 0 min 2 min 0 W/m 18,8 km/h (3 Bft) 95,65 %
19.03.2017 06:38 10,6 C 10,6 C 9,4 C 99 % 15 lf 1008,3 hPa 0,0 l/m 0 min 0 min 0 W/m 23,0 km/h (4 Bft) 97,87 %
19.03.2017 06:40 10,5 C 10,6 C 9,4 C 99 % 15 lf 1008,3 hPa 0,0 l/m 0 min 0 min 3 W/m 23,0 km/h (4 Bft) 95,74 %
19.03.2017 06:42 10,5 C 10,6 C 9,4 C 99 % 15 lf 1008,2 hPa 0,0 l/m 0 min 2 min 5 W/m 31,4 km/h (5 Bft) 95,74 %
19.03.2017 06:44 10,5 C 10,6 C 9,4 C 99 % 15 lf 1008,2 hPa 0,0 l/m 0 min 2 min 5 W/m 23,0 km/h (4 Bft) 97,87 %
19.03.2017 06:46 10,5 C 10,6 C 9,4 C 99 % 15 lf 1008,2 hPa 0,0 l/m 0 min 0 min 5 W/m 25,1 km/h (4 Bft) 100,00 %
19.03.2017 06:48 10,5 C 10,6 C 9,4 C 99 % 15 lf 1008,1 hPa 0,0 l/m 0 min 0 min 5 W/m 18,8 km/h (3 Bft) 95,65 %
19.03.2017 06:50 10,5 C 10,6 C 9,4 C 99 % 15 lf 1008,1 hPa 0,0 l/m 0 min 2 min 5 W/m 31,4 km/h (5 Bft) 100,00 %
19.03.2017 06:52 10,5 C 10,6 C 9,4 C 99 % 15 lf 1008,1 hPa 0,0 l/m 0 min 0 min 5 W/m 27,2 km/h (4 Bft) 95,65 %
19.03.2017 06:54 10,5 C 10,6 C 9,4 C 99 % 15 lf 1008,0 hPa 0,0 l/m 0 min 0 min 6 W/m 31,4 km/h (5 Bft) 97,87 %
19.03.2017 06:56 10,5 C 10,6 C 9,4 C 99 % 15 lf 1008,0 hPa 0,0 l/m 0 min 2 min 7 W/m 33,5 km/h (5 Bft) 95,74 %
19.03.2017 06:58 10,5 C 10,6 C 9,4 C 99 % 15 lf 1008,1 hPa 0,0 l/m 0 min 2 min 7 W/m 33,5 km/h (5 Bft) 97,87 %
19.03.2017 07:00 10,4 C 10,6 C 8,9 C 99 % 15 lf 1008,0 hPa 0,0 l/m 0 min 2 min 7 W/m 27,2 km/h (4 Bft) 97,87 %
19.03.2017 07:02 10,4 C 10,6 C 9,4 C 99 % 15 lf 1008,0 hPa 0,0 l/m 0 min 2 min 7 W/m 37,7 km/h (5 Bft) 89,13 %
19.03.2017 07:04 10,4 C 10,6 C 9,4 C 99 % 15 lf 1008,0 hPa 0,2 l/m 0 min 2 min 7 W/m 27,2 km/h (4 Bft) 95,74 %
19.03.2017 07:06 10,4 C 10,6 C 9,4 C 99 % 15 lf 1008,0 hPa 0,0 l/m 0 min 0 min 8 W/m 27,2 km/h (4 Bft) 95,74 %
19.03.2017 07:08 10,4 C 10,6 C 9,4 C 99 % 15 lf 1008,0 hPa 0,0 l/m 0 min 2 min 9 W/m 33,5 km/h (5 Bft) 95,74 %
19.03.2017 07:10 10,4 C 10,6 C 9,4 C 99 % 15 lf 1008,0 hPa 0,0 l/m 0 min 2 min 10 W/m 31,4 km/h (5 Bft) 97,83 %
19.03.2017 07:12 10,4 C 10,6 C 9,4 C 99 % 15 lf 1008,0 hPa 0,0 l/m 0 min 2 min 11 W/m 27,2 km/h (4 Bft) 95,74 %
19.03.2017 07:14 10,4 C 10,6 C 9,4 C 99 % 15 lf 1008,0 hPa 0,0 l/m 0 min 2 min 11 W/m 37,7 km/h (5 Bft) 95,74 %
19.03.2017 07:16 10,4 C 10,6 C 9,4 C 99 % 15 lf 1008,0 hPa 0,0 l/m 0 min 2 min 11 W/m 31,4 km/h (5 Bft) 97,87 %
19.03.2017 07:18 10,4 C 10,6 C 9,4 C 99 % 15 lf 1008,0 hPa 0,0 l/m 0 min 2 min 11 W/m 29,3 km/h (5 Bft) 93,62 %
19.03.2017 07:20 10,4 C 10,6 C 9,4 C 99 % 15 lf 1008,1 hPa 0,0 l/m 0 min 2 min 11 W/m 31,4 km/h (5 Bft) 97,87 %
19.03.2017 07:22 10,4 C 10,6 C 9,4 C 99 % 15 lf 1008,1 hPa 0,0 l/m 0 min 2 min 11 W/m 25,1 km/h (4 Bft) 95,74 %
19.03.2017 07:24 10,4 C 10,6 C 9,4 C 99 % 15 lf 1008,0 hPa 0,0 l/m 0 min 2 min 11 W/m 29,3 km/h (5 Bft) 95,65 %
19.03.2017 07:26 10,4 C 10,6 C 9,4 C 99 % 15 lf 1008,0 hPa 0,0 l/m 0 min 2 min 14 W/m 35,6 km/h (5 Bft) 97,87 %
19.03.2017 07:28 10,4 C 10,6 C 9,4 C 99 % 15 lf 1008,0 hPa 0,0 l/m 0 min 2 min 14 W/m 31,4 km/h (5 Bft) 97,87 %
19.03.2017 07:30 10,4 C 10,6 C 9,4 C 99 % 15 lf 1008,0 hPa 0,0 l/m 0 min 2 min 16 W/m 27,2 km/h (4 Bft) 95,74 %
19.03.2017 07:32 10,4 C 10,6 C 9,4 C 99 % 15 lf 1008,0 hPa 0,0 l/m 0 min 2 min 17 W/m 31,4 km/h (5 Bft) 93,62 %
19.03.2017 07:34 10,4 C 10,6 C 9,4 C 99 % 15 lf 1008,0 hPa 0,0 l/m 0 min 2 min 14 W/m 35,6 km/h (5 Bft) 93,48 %
19.03.2017 07:36 10,5 C 10,6 C 9,4 C 99 % 15 lf 1008,0 hPa 0,0 l/m 0 min 2 min 16 W/m 31,4 km/h (5 Bft) 93,62 %
19.03.2017 07:38 10,5 C 10,6 C 9,4 C 99 % 15 lf 1008,0 hPa 0,0 l/m 0 min 0 min 18 W/m 33,5 km/h (5 Bft) 97,87 %
19.03.2017 07:40 10,4 C 10,6 C 9,4 C 99 % 15 lf 1008,0 hPa 0,0 l/m 0 min 2 min 18 W/m 41,8 km/h (6 Bft) 100,00 %
19.03.2017 07:42 10,4 C 10,6 C 9,4 C 99 % 15 lf 1007,9 hPa 0,0 l/m 0 min 2 min 18 W/m 25,1 km/h (4 Bft) 97,87 %
19.03.2017 07:44 10,4 C 10,6 C 9,4 C 99 % 15 lf 1007,8 hPa 0,0 l/m 0 min 0 min 18 W/m 33,5 km/h (5 Bft) 100,00 %
19.03.2017 07:46 10,5 C 10,6 C 9,4 C 99 % 15 lf 1007,8 hPa 0,0 l/m 0 min 0 min 19 W/m 29,3 km/h (5 Bft) 100,00 %
19.03.2017 07:48 10,4 C 10,6 C 9,4 C 99 % 15 lf 1007,8 hPa 0,0 l/m 0 min 0 min 20 W/m 29,3 km/h (5 Bft) 100,00 %
19.03.2017 07:50 10,5 C 10,6 C 9,4 C 99 % 15 lf 1007,6 hPa 0,0 l/m 0 min 0 min 23 W/m 37,7 km/h (5 Bft) 97,87 %
19.03.2017 07:52 10,5 C 10,6 C 9,4 C 99 % 15 lf 1007,6 hPa 0,0 l/m 0 min 0 min 26 W/m 29,3 km/h (5 Bft) 100,00 %
19.03.2017 07:54 10,5 C 10,6 C 9,4 C 99 % 15 lf 1007,7 hPa 0,0 l/m 0 min 2 min 25 W/m 29,3 km/h (5 Bft) 97,87 %
19.03.2017 07:56 10,5 C 10,6 C 9,4 C 99 % 15 lf 1007,7 hPa 0,0 l/m 0 min 0 min 28 W/m 29,3 km/h (5 Bft) 97,83 %
19.03.2017 07:58 10,5 C 10,6 C 9,4 C 99 % 15 lf 1007,6 hPa 0,0 l/m 0 min 0 min 27 W/m 29,3 km/h (5 Bft) 97,87 %
19.03.2017 08:00 10,5 C 10,6 C 9,4 C 99 % 15 lf 1007,6 hPa 0,0 l/m 0 min 0 min 27 W/m 31,4 km/h (5 Bft) 94,44 %
19.03.2017 08:02 10,5 C 10,6 C 9,4 C 99 % 15 lf 1007,7 hPa 0,0 l/m 0 min 0 min 29 W/m 37,7 km/h (5 Bft) 93,62 %
19.03.2017 08:04 10,5 C 10,6 C 9,4 C 99 % 15 lf 1007,8 hPa 0,0 l/m 0 min 0 min 30 W/m 29,3 km/h (5 Bft) 97,87 %
19.03.2017 08:06 10,5 C 10,6 C 9,4 C 99 % 15 lf 1007,8 hPa 0,0 l/m 0 min 2 min 28 W/m 31,4 km/h (5 Bft) 97,87 %
19.03.2017 08:08 10,6 C 10,6 C 9,4 C 99 % 15 lf 1007,9 hPa 0,0 l/m 0 min 0 min 29 W/m 27,2 km/h (4 Bft) 93,62 %
19.03.2017 08:10 10,6 C 10,6 C 9,4 C 99 % 15 lf 1007,9 hPa 0,0 l/m 0 min 0 min 32 W/m 35,6 km/h (5 Bft) 93,62 %
19.03.2017 08:12 10,6 C 10,6 C 9,4 C 99 % 15 lf 1007,7 hPa 0,0 l/m 0 min 2 min 38 W/m 43,9 km/h (6 Bft) 93,48 %
19.03.2017 08:14 10,6 C 10,6 C 9,4 C 99 % 15 lf 1007,8 hPa 0,0 l/m 0 min 0 min 42 W/m 39,7 km/h (6 Bft) 95,74 %
19.03.2017 08:16 10,6 C 10,6 C 9,4 C 99 % 15 lf 1007,9 hPa 0,0 l/m 0 min 2 min 37 W/m 39,7 km/h (6 Bft) 97,87 %
19.03.2017 08:18 10,6 C 10,6 C 9,4 C 99 % 15 lf 1007,8 hPa 0,0 l/m 0 min 2 min 39 W/m 37,7 km/h (5 Bft) 95,74 %
19.03.2017 08:20 10,6 C 10,6 C 9,4 C 99 % 15 lf 1007,9 hPa 0,0 l/m 0 min 0 min 43 W/m 27,2 km/h (4 Bft) 93,22 %
19.03.2017 08:22 10,6 C 10,6 C 9,4 C 99 % 15 lf 1007,9 hPa 0,0 l/m 0 min 0 min 42 W/m 43,9 km/h (6 Bft) 91,43 %
19.03.2017 08:24 10,6 C 10,6 C 9,4 C 99 % 15 lf 1007,8 hPa 0,0 l/m 0 min 0 min 45 W/m 29,3 km/h (5 Bft) 93,48 %
19.03.2017 08:26 10,6 C 10,6 C 9,4 C 99 % 15 lf 1007,9 hPa 0,0 l/m 0 min 0 min 41 W/m 33,5 km/h (5 Bft) 95,74 %
19.03.2017 08:28 10,6 C 10,6 C 9,4 C 99 % 15 lf 1007,9 hPa 0,0 l/m 0 min 0 min 39 W/m 29,3 km/h (5 Bft) 97,87 %
19.03.2017 08:30 10,6 C 10,6 C 9,4 C 99 % 15 lf 1007,9 hPa 0,0 l/m 0 min 2 min 35 W/m 31,4 km/h (5 Bft) 95,74 %
19.03.2017 08:32 10,6 C 10,6 C 9,4 C 99 % 15 lf 1007,9 hPa 0,0 l/m 0 min 0 min 32 W/m 33,5 km/h (5 Bft) 97,87 %
19.03.2017 08:34 10,6 C 10,6 C 9,4 C 99 % 15 lf 1008,0 hPa 0,0 l/m 0 min 0 min 33 W/m 29,3 km/h (5 Bft) 97,87 %
19.03.2017 08:36 10,6 C 10,6 C 9,4 C 99 % 15 lf 1008,0 hPa 0,0 l/m 0 min 0 min 30 W/m 37,7 km/h (5 Bft) 95,65 %
19.03.2017 08:38 10,6 C 10,6 C 9,4 C 99 % 15 lf 1008,0 hPa 0,0 l/m 0 min 2 min 32 W/m 37,7 km/h (5 Bft) 95,74 %
19.03.2017 08:40 10,6 C 10,6 C 9,4 C 99 % 15 lf 1007,9 hPa 0,0 l/m 0 min 2 min 35 W/m 37,7 km/h (5 Bft) 93,62 %
19.03.2017 08:42 10,6 C 10,6 C 9,4 C 99 % 15 lf 1008,0 hPa 0,0 l/m 0 min 2 min 34 W/m 37,7 km/h (5 Bft) 95,74 %
19.03.2017 08:44 10,6 C 10,6 C 9,4 C 99 % 15 lf 1008,0 hPa 0,0 l/m 0 min 2 min 35 W/m 35,6 km/h (5 Bft) 89,36 %
19.03.2017 08:46 10,6 C 10,6 C 9,4 C 99 % 15 lf 1008,0 hPa 0,0 l/m 0 min 0 min 34 W/m 37,7 km/h (5 Bft) 95,74 %
19.03.2017 08:48 10,6 C 10,6 C 9,4 C 99 % 15 lf 1008,0 hPa 0,0 l/m 0 min 2 min 33 W/m 43,9 km/h (6 Bft) 95,65 %
19.03.2017 08:50 10,6 C 10,6 C 9,4 C 99 % 15 lf 1007,9 hPa 0,0 l/m 0 min 0 min 36 W/m 50,2 km/h (7 Bft) 93,22 %
19.03.2017 08:52 10,6 C 10,6 C 9,4 C 99 % 15 lf 1008,0 hPa 0,0 l/m 0 min 0 min 33 W/m 37,7 km/h (5 Bft) 97,14 %
19.03.2017 08:54 10,6 C 10,6 C 9,4 C 99 % 15 lf 1008,0 hPa 0,0 l/m 0 min 0 min 35 W/m 29,3 km/h (5 Bft) 93,62 %
19.03.2017 08:56 10,6 C 10,6 C 9,4 C 99 % 15 lf 1007,9 hPa 0,0 l/m 0 min 0 min 36 W/m 37,7 km/h (5 Bft) 91,49 %
19.03.2017 08:58 10,6 C 10,6 C 9,4 C 99 % 15 lf 1008,0 hPa 0,0 l/m 0 min 0 min 36 W/m 37,7 km/h (5 Bft) 95,74 %
19.03.2017 09:00 10,6 C 10,6 C 9,4 C 99 % 15 lf 1008,1 hPa 0,0 l/m 0 min 0 min 34 W/m 43,9 km/h (6 Bft) 93,48 %
19.03.2017 09:02 10,6 C 10,6 C 9,4 C 99 % 15 lf 1008,1 hPa 0,0 l/m 0 min 0 min 32 W/m 41,8 km/h (6 Bft) 91,49 %
19.03.2017 09:04 10,6 C 10,6 C 9,4 C 99 % 15 lf 1008,1 hPa 0,0 l/m 0 min 0 min 35 W/m 35,6 km/h (5 Bft) 93,62 %
19.03.2017 09:06 10,6 C 10,6 C 9,4 C 99 % 15 lf 1008,0 hPa 0,0 l/m 0 min 0 min 40 W/m 33,5 km/h (5 Bft) 95,74 %
19.03.2017 09:08 10,6 C 10,6 C 9,4 C 99 % 15 lf 1008,0 hPa 0,0 l/m 0 min 0 min 39 W/m 29,3 km/h (5 Bft) 95,74 %
19.03.2017 09:10 10,6 C 10,6 C 9,4 C 99 % 15 lf 1008,0 hPa 0,0 l/m 0 min 0 min 35 W/m 37,7 km/h (5 Bft) 95,65 %
19.03.2017 09:12 10,6 C 10,6 C 9,4 C 99 % 15 lf 1008,0 hPa 0,0 l/m 0 min 0 min 34 W/m 39,7 km/h (6 Bft) 89,36 %
19.03.2017 09:14 10,6 C 10,6 C 9,4 C 99 % 15 lf 1008,0 hPa 0,0 l/m 0 min 2 min 41 W/m 37,7 km/h (5 Bft) 93,62 %
19.03.2017 09:16 10,6 C 10,6 C 9,4 C 99 % 15 lf 1008,0 hPa 0,0 l/m 0 min 0 min 41 W/m 31,4 km/h (5 Bft) 93,62 %
19.03.2017 09:18 10,6 C 10,6 C 9,4 C 99 % 15 lf 1008,1 hPa 0,0 l/m 0 min 2 min 40 W/m 37,7 km/h (5 Bft) 93,62 %
19.03.2017 09:20 10,6 C 10,6 C 9,4 C 99 % 15 lf 1008,0 hPa 0,0 l/m 0 min 2 min 50 W/m 39,7 km/h (6 Bft) 95,74 %
19.03.2017 09:22 10,6 C 10,6 C 9,4 C 99 % 15 lf 1008,0 hPa 0,0 l/m 0 min 0 min 52 W/m 39,7 km/h (6 Bft) 94,00 %
19.03.2017 09:24 10,6 C 10,6 C 9,4 C 99 % 15 lf 1007,9 hPa 0,0 l/m 0 min 0 min 58 W/m 48,1 km/h (6 Bft) 95,74 %
19.03.2017 09:26 10,6 C 10,6 C 9,4 C 99 % 15 lf 1008,0 hPa 0,0 l/m 0 min 2 min 66 W/m 41,8 km/h (6 Bft) 95,74 %
19.03.2017 09:28 10,6 C 10,6 C 9,4 C 99 % 14 lf 1008,0 hPa 0,0 l/m 0 min 2 min 73 W/m 41,8 km/h (6 Bft) 89,36 %
19.03.2017 09:30 10,7 C 10,6 C 9,4 C 99 % 14 lf 1008,0 hPa 0,0 l/m 0 min 0 min 70 W/m 35,6 km/h (5 Bft) 97,87 %
19.03.2017 09:32 10,7 C 10,6 C 9,4 C 99 % 13 lf 1008,0 hPa 0,0 l/m 0 min 0 min 64 W/m 33,5 km/h (5 Bft) 97,87 %
19.03.2017 09:34 10,7 C 10,6 C 9,4 C 99 % 13 lf 1008,1 hPa 0,0 l/m 0 min 0 min 61 W/m 27,2 km/h (4 Bft) 100,00 %
19.03.2017 09:36 10,7 C 11,1 C 10,0 C 99 % 12 lf 1008,1 hPa 0,0 l/m 0 min 0 min 69 W/m 35,6 km/h (5 Bft) 95,74 %
19.03.2017 09:38 10,7 C 11,1 C 10,0 C 99 % 11 lf 1008,1 hPa 0,0 l/m 0 min 0 min 68 W/m 29,3 km/h (5 Bft) 93,62 %
19.03.2017 09:40 10,7 C 11,1 C 10,0 C 99 % 10 lf 1008,0 hPa 0,0 l/m 0 min 0 min 62 W/m 25,1 km/h (4 Bft) 97,87 %
19.03.2017 09:42 10,7 C 11,1 C 10,0 C 99 % 8 lf 1008,1 hPa 0,0 l/m 0 min 0 min 55 W/m 33,5 km/h (5 Bft) 95,74 %
19.03.2017 09:44 10,7 C 11,1 C 10,0 C 99 % 6 lf 1008,1 hPa 0,0 l/m 0 min 0 min 50 W/m 29,3 km/h (5 Bft) 95,74 %
19.03.2017 09:46 10,7 C 11,1 C 10,0 C 99 % 4 lf 1008,1 hPa 0,0 l/m 0 min 0 min 54 W/m 48,1 km/h (6 Bft) 93,48 %
19.03.2017 09:48 10,7 C 10,6 C 10,0 C 99 % 3 lf 1008,1 hPa 0,0 l/m 0 min 0 min 54 W/m 37,7 km/h (5 Bft) 97,87 %
19.03.2017 09:50 10,7 C 11,1 C 10,0 C 99 % 3 lf 1008,0 hPa 0,0 l/m 0 min 0 min 57 W/m 37,7 km/h (5 Bft) 93,62 %
19.03.2017 09:52 10,7 C 11,1 C 10,0 C 99 % 2 lf 1008,0 hPa 0,0 l/m 0 min 0 min 52 W/m 41,8 km/h (6 Bft) 95,74 %
19.03.2017 09:54 10,7 C 11,1 C 10,0 C 99 % 1 lf 1007,9 hPa 0,0 l/m 0 min 0 min 63 W/m 35,6 km/h (5 Bft) 91,49 %
19.03.2017 09:56 10,8 C 11,1 C 10,0 C 99 % 0 lf 1007,9 hPa 0,0 l/m 0 min 0 min 76 W/m 39,7 km/h (6 Bft) 95,65 %
19.03.2017 09:58 10,7 C 11,1 C 10,0 C 99 % 0 lf 1008,0 hPa 0,0 l/m 0 min 0 min 65 W/m 31,4 km/h (5 Bft) 93,62 %
19.03.2017 10:00 10,8 C 11,1 C 10,0 C 99 % 0 lf 1007,9 hPa 0,0 l/m 0 min 0 min 66 W/m 35,6 km/h (5 Bft) 95,74 %
19.03.2017 10:02 10,8 C 11,1 C 10,0 C 99 % 0 lf 1007,9 hPa 0,0 l/m 0 min 0 min 76 W/m 43,9 km/h (6 Bft) 96,00 %
19.03.2017 10:04 10,8 C 11,1 C 10,0 C 99 % 0 lf 1008,0 hPa 0,0 l/m 0 min 0 min 70 W/m 35,6 km/h (5 Bft) 95,74 %
19.03.2017 10:06 10,8 C 11,1 C 10,0 C 99 % 0 lf 1008,0 hPa 0,0 l/m 0 min 0 min 74 W/m 35,6 km/h (5 Bft) 95,74 %
19.03.2017 10:08 10,8 C 11,1 C 10,0 C 99 % 0 lf 1008,0 hPa 0,0 l/m 0 min 0 min 73 W/m 35,6 km/h (5 Bft) 93,48 %
19.03.2017 10:10 10,8 C 11,1 C 10,0 C 99 % 0 lf 1008,1 hPa 0,0 l/m 0 min 0 min 83 W/m 35,6 km/h (5 Bft) 93,62 %
19.03.2017 10:12 10,8 C 11,1 C 10,0 C 99 % 0 lf 1008,0 hPa 0,0 l/m 0 min 0 min 72 W/m 29,3 km/h (5 Bft) 95,74 %
19.03.2017 10:14 10,8 C 11,1 C 10,0 C 99 % 0 lf 1008,1 hPa 0,0 l/m 0 min 0 min 76 W/m 29,3 km/h (5 Bft) 97,87 %
19.03.2017 10:16 10,9 C 11,1 C 10,0 C 98 % 0 lf 1008,0 hPa 0,0 l/m 0 min 0 min 65 W/m 31,4 km/h (5 Bft) 93,62 %
19.03.2017 10:18 10,9 C 11,1 C 10,0 C 98 % 0 lf 1008,0 hPa 0,0 l/m 0 min 0 min 61 W/m 23,0 km/h (4 Bft) 95,74 %
19.03.2017 10:20 10,9 C 11,1 C 10,0 C 98 % 0 lf 1008,1 hPa 0,0 l/m 0 min 0 min 60 W/m 29,3 km/h (5 Bft) 95,65 %
19.03.2017 10:22 10,9 C 11,1 C 10,0 C 98 % 0 lf 1008,1 hPa 0,0 l/m 0 min 0 min 72 W/m 35,6 km/h (5 Bft) 97,22 %
19.03.2017 10:24 10,9 C 11,1 C 10,0 C 98 % 0 lf 1008,1 hPa 0,0 l/m 0 min 0 min 73 W/m 25,1 km/h (4 Bft) 95,65 %
19.03.2017 10:26 10,9 C 11,1 C 10,0 C 98 % 0 lf 1008,1 hPa 0,0 l/m 0 min 0 min 107 W/m 37,7 km/h (5 Bft) 97,87 %
19.03.2017 10:28 10,9 C 11,7 C 10,6 C 98 % 0 lf 1008,1 hPa 0,0 l/m 0 min 0 min 120 W/m 37,7 km/h (5 Bft) 97,87 %
19.03.2017 10:30 10,9 C 11,7 C 10,0 C 98 % 0 lf 1008,1 hPa 0,0 l/m 0 min 0 min 89 W/m 31,4 km/h (5 Bft) 97,87 %
19.03.2017 10:32 11,0 C 11,1 C 10,0 C 98 % 0 lf 1008,1 hPa 0,0 l/m 0 min 0 min 86 W/m 25,1 km/h (4 Bft) 100,00 %
19.03.2017 10:34 11,0 C 11,7 C 10,6 C 98 % 0 lf 1008,1 hPa 0,0 l/m 0 min 0 min 85 W/m 25,1 km/h (4 Bft) 100,00 %
19.03.2017 10:36 11,0 C 11,1 C 10,6 C 98 % 0 lf 1008,2 hPa 0,0 l/m 0 min 0 min 116 W/m 35,6 km/h (5 Bft) 95,65 %
19.03.2017 10:38 11,1 C 11,7 C 10,6 C 98 % 0 lf 1008,1 hPa 0,0 l/m 0 min 0 min 125 W/m 29,3 km/h (5 Bft) 95,74 %
19.03.2017 10:40 11,1 C 11,7 C 10,6 C 98 % 0 lf 1008,2 hPa 0,0 l/m 0 min 0 min 103 W/m 52,3 km/h (7 Bft) 97,87 %
19.03.2017 10:42 11,1 C 11,7 C 10,6 C 98 % 0 lf 1008,2 hPa 0,0 l/m 0 min 0 min 104 W/m 39,7 km/h (6 Bft) 97,87 %
19.03.2017 10:44 11,1 C 11,7 C 10,6 C 98 % 0 lf 1008,2 hPa 0,0 l/m 0 min 0 min 114 W/m 37,7 km/h (5 Bft) 97,87 %
19.03.2017 10:46 11,1 C 11,7 C 10,6 C 98 % 0 lf 1008,1 hPa 0,0 l/m 0 min 0 min 91 W/m 20,9 km/h (4 Bft) 97,87 %
19.03.2017 10:48 11,1 C 11,7 C 10,6 C 98 % 0 lf 1008,1 hPa 0,0 l/m 0 min 0 min 87 W/m 25,1 km/h (4 Bft) 100,00 %
19.03.2017 10:50 11,2 C 11,7 C 10,6 C 98 % 0 lf 1008,1 hPa 0,0 l/m 0 min 0 min 122 W/m 25,1 km/h (4 Bft) 97,87 %
19.03.2017 10:52 11,2 C 11,7 C 10,6 C 98 % 0 lf 1008,1 hPa 0,0 l/m 0 min 0 min 122 W/m 35,6 km/h (5 Bft) 100,00 %
19.03.2017 10:54 11,2 C 11,7 C 10,6 C 98 % 0 lf 1008,1 hPa 0,0 l/m 0 min 0 min 93 W/m 37,7 km/h (5 Bft) 100,00 %
19.03.2017 10:56 11,2 C 11,7 C 10,6 C 98 % 0 lf 1008,1 hPa 0,0 l/m 0 min 0 min 78 W/m 39,7 km/h (6 Bft) 100,00 %
19.03.2017 10:58 11,2 C 11,7 C 10,6 C 98 % 0 lf 1008,2 hPa 0,0 l/m 0 min 0 min 60 W/m 35,6 km/h (5 Bft) 97,87 %
19.03.2017 11:00 11,2 C 11,7 C 10,6 C 98 % 0 lf 1008,1 hPa 0,0 l/m 0 min 0 min 74 W/m 33,5 km/h (5 Bft) 100,00 %
19.03.2017 11:02 11,2 C 11,7 C 10,6 C 97 % 0 lf 1008,1 hPa 0,0 l/m 0 min 0 min 84 W/m 37,7 km/h (5 Bft) 100,00 %
19.03.2017 11:04 11,2 C 11,7 C 10,6 C 97 % 0 lf 1008,1 hPa 0,0 l/m 0 min 0 min 80 W/m 31,4 km/h (5 Bft) 97,87 %
19.03.2017 11:06 11,3 C 11,7 C 10,6 C 97 % 0 lf 1008,1 hPa 0,0 l/m 0 min 0 min 90 W/m 35,6 km/h (5 Bft) 100,00 %
19.03.2017 11:08 11,3 C 11,7 C 10,6 C 97 % 0 lf 1008,0 hPa 0,0 l/m 0 min 0 min 92 W/m 37,7 km/h (5 Bft) 100,00 %
19.03.2017 11:10 11,3 C 11,7 C 10,6 C 97 % 0 lf 1008,0 hPa 0,0 l/m 0 min 0 min 94 W/m 35,6 km/h (5 Bft) 100,00 %
19.03.2017 11:12 11,3 C 11,7 C 10,6 C 97 % 0 lf 1008,1 hPa 0,0 l/m 0 min 0 min 90 W/m 29,3 km/h (5 Bft) 100,00 %
19.03.2017 11:14 11,3 C 11,7 C 10,6 C 97 % 0 lf 1008,1 hPa 0,0 l/m 0 min 0 min 79 W/m 35,6 km/h (5 Bft) 97,87 %
19.03.2017 11:16 11,3 C 11,7 C 10,6 C 97 % 0 lf 1007,9 hPa 0,0 l/m 0 min 0 min 94 W/m 39,7 km/h (6 Bft) 100,00 %
19.03.2017 11:18 11,3 C 12,2 C 10,6 C 97 % 0 lf 1008,0 hPa 0,0 l/m 0 min 0 min 113 W/m 35,6 km/h (5 Bft) 100,00 %
19.03.2017 11:20 11,3 C 12,2 C 10,6 C 97 % 0 lf 1007,9 hPa 0,0 l/m 0 min 0 min 125 W/m 27,2 km/h (4 Bft) 93,62 %
19.03.2017 11:22 11,3 C 12,2 C 10,6 C 97 % 0 lf 1008,0 hPa 0,0 l/m 0 min 0 min 130 W/m 35,6 km/h (5 Bft) 100,00 %
19.03.2017 11:24 11,4 C 12,2 C 10,6 C 96 % 0 lf 1007,9 hPa 0,0 l/m 0 min 0 min 130 W/m 43,9 km/h (6 Bft) 93,62 %
19.03.2017 11:26 11,4 C 12,8 C 11,1 C 96 % 0 lf 1007,8 hPa 0,0 l/m 0 min 0 min 144 W/m 27,2 km/h (4 Bft) 97,87 %
19.03.2017 11:28 11,4 C 12,8 C 11,1 C 96 % 0 lf 1007,9 hPa 0,0 l/m 0 min 0 min 177 W/m 31,4 km/h (5 Bft) 97,87 %
19.03.2017 11:30 11,4 C 13,3 C 11,7 C 96 % 0 lf 1007,7 hPa 0,0 l/m 0 min 0 min 218 W/m 25,1 km/h (4 Bft) 100,00 %
19.03.2017 11:32 11,5 C 13,3 C 11,1 C 96 % 0 lf 1007,7 hPa 0,0 l/m 0 min 0 min 200 W/m 31,4 km/h (5 Bft) 97,87 %
19.03.2017 11:34 11,6 C 13,3 C 11,1 C 96 % 0 lf 1007,7 hPa 0,0 l/m 0 min 0 min 156 W/m 29,3 km/h (5 Bft) 97,87 %
19.03.2017 11:36 11,6 C 12,8 C 11,7 C 96 % 0 lf 1007,6 hPa 0,0 l/m 0 min 0 min 158 W/m 27,2 km/h (4 Bft) 100,00 %
19.03.2017 11:38 11,6 C 13,3 C 11,7 C 96 % 0 lf 1007,6 hPa 0,0 l/m 0 min 0 min 192 W/m 33,5 km/h (5 Bft) 100,00 %
19.03.2017 11:40 11,7 C 13,3 C 11,7 C 96 % 0 lf 1007,6 hPa 0,0 l/m 0 min 0 min 179 W/m 35,6 km/h (5 Bft) 95,74 %
19.03.2017 11:42 11,7 C 13,3 C 11,7 C 96 % 0 lf 1007,6 hPa 0,0 l/m 0 min 0 min 205 W/m 43,9 km/h (6 Bft) 93,48 %
19.03.2017 11:44 11,7 C 13,3 C 11,7 C 96 % 0 lf 1007,6 hPa 0,0 l/m 0 min 0 min 204 W/m 31,4 km/h (5 Bft) 93,62 %
19.03.2017 11:46 11,7 C 12,8 C 11,7 C 96 % 0 lf 1007,6 hPa 0,0 l/m 0 min 0 min 191 W/m 41,8 km/h (6 Bft) 91,49 %
19.03.2017 11:48 11,7 C 12,8 C 11,7 C 95 % 0 lf 1007,6 hPa 0,0 l/m 0 min 0 min 139 W/m 46,0 km/h (6 Bft) 91,49 %
19.03.2017 11:50 11,7 C 12,8 C 11,7 C 95 % 0 lf 1007,5 hPa 0,0 l/m 0 min 0 min 157 W/m 37,7 km/h (5 Bft) 93,62 %
19.03.2017 11:52 11,7 C 12,8 C 11,7 C 95 % 0 lf 1007,5 hPa 0,0 l/m 0 min 0 min 155 W/m 43,9 km/h (6 Bft) 95,74 %
19.03.2017 11:54 11,8 C 12,8 C 11,7 C 95 % 0 lf 1007,6 hPa 0,0 l/m 0 min 0 min 142 W/m 35,6 km/h (5 Bft) 91,30 %
19.03.2017 11:56 11,8 C 12,8 C 11,7 C 95 % 0 lf 1007,5 hPa 0,0 l/m 0 min 0 min 145 W/m 39,7 km/h (6 Bft) 95,74 %
19.03.2017 11:58 11,8 C 12,8 C 11,7 C 95 % 0 lf 1007,6 hPa 0,0 l/m 0 min 0 min 125 W/m 35,6 km/h (5 Bft) 95,74 %
19.03.2017 12:00 11,8 C 12,8 C 11,7 C 95 % 0 lf 1007,6 hPa 0,0 l/m 0 min 0 min 109 W/m 33,5 km/h (5 Bft) 95,74 %
19.03.2017 12:02 11,8 C 12,8 C 11,1 C 95 % 0 lf 1007,6 hPa 0,0 l/m 0 min 0 min 91 W/m 41,8 km/h (6 Bft) 93,62 %
19.03.2017 12:04 11,8 C 12,2 C 11,1 C 95 % 0 lf 1007,6 hPa 0,0 l/m 0 min 0 min 93 W/m 39,7 km/h (6 Bft) 91,67 %
19.03.2017 12:06 11,8 C 12,8 C 11,1 C 94 % 0 lf 1007,6 hPa 0,0 l/m 0 min 0 min 106 W/m 41,8 km/h (6 Bft) 89,36 %
19.03.2017 12:08 11,8 C 12,8 C 11,7 C 94 % 0 lf 1007,6 hPa 0,0 l/m 0 min 0 min 151 W/m 29,3 km/h (5 Bft) 93,62 %
19.03.2017 12:10 11,8 C 12,8 C 11,7 C 94 % 0 lf 1007,6 hPa 0,0 l/m 0 min 0 min 131 W/m 31,4 km/h (5 Bft) 93,62 %
19.03.2017 12:12 11,8 C 12,8 C 11,7 C 94 % 0 lf 1007,6 hPa 0,0 l/m 0 min 0 min 121 W/m 29,3 km/h (5 Bft) 95,74 %
19.03.2017 12:14 11,8 C 12,8 C 11,7 C 94 % 0 lf 1007,6 hPa 0,0 l/m 0 min 0 min 114 W/m 18,8 km/h (3 Bft) 91,49 %
19.03.2017 12:16 11,9 C 12,8 C 11,7 C 94 % 0 lf 1007,6 hPa 0,0 l/m 0 min 0 min 99 W/m 35,6 km/h (5 Bft) 91,30 %
19.03.2017 12:18 11,9 C 12,8 C 11,1 C 94 % 0 lf 1007,6 hPa 0,0 l/m 0 min 0 min 90 W/m 27,2 km/h (4 Bft) 95,74 %
19.03.2017 12:20 11,9 C 12,8 C 11,1 C 94 % 0 lf 1007,6 hPa 0,0 l/m 0 min 0 min 89 W/m 41,8 km/h (6 Bft) 89,36 %
19.03.2017 12:22 11,9 C 12,8 C 11,1 C 94 % 0 lf 1007,6 hPa 0,0 l/m 0 min 0 min 72 W/m 41,8 km/h (6 Bft) 97,87 %
19.03.2017 12:24 11,9 C 12,2 C 11,1 C 94 % 0 lf 1007,6 hPa 0,0 l/m 0 min 0 min 64 W/m 29,3 km/h (5 Bft) 85,11 %
19.03.2017 12:26 11,8 C 12,2 C 11,1 C 94 % 0 lf 1007,6 hPa 0,0 l/m 0 min 0 min 53 W/m 29,3 km/h (5 Bft) 91,49 %
19.03.2017 12:28 11,8 C 12,2 C 11,1 C 94 % 0 lf 1007,6 hPa 0,0 l/m 0 min 0 min 45 W/m 43,9 km/h (6 Bft) 91,30 %
19.03.2017 12:30 11,8 C 12,2 C 10,6 C 94 % 0 lf 1007,5 hPa 0,0 l/m 0 min 0 min 43 W/m 39,7 km/h (6 Bft) 95,74 %
19.03.2017 12:32 11,8 C 12,2 C 10,6 C 94 % 0 lf 1007,4 hPa 0,0 l/m 0 min 0 min 45 W/m 31,4 km/h (5 Bft) 95,74 %
19.03.2017 12:34 11,8 C 12,2 C 10,6 C 93 % 0 lf 1007,5 hPa 0,0 l/m 0 min 0 min 45 W/m 29,3 km/h (5 Bft) 95,74 %
19.03.2017 12:36 11,8 C 12,2 C 10,6 C 93 % 0 lf 1007,3 hPa 0,0 l/m 0 min 0 min 52 W/m 31,4 km/h (5 Bft) 93,62 %
19.03.2017 12:38 11,8 C 12,2 C 10,6 C 93 % 0 lf 1007,3 hPa 0,0 l/m 0 min 0 min 61 W/m 39,7 km/h (6 Bft) 89,36 %
19.03.2017 12:40 11,8 C 12,2 C 10,6 C 93 % 0 lf 1007,3 hPa 0,0 l/m 0 min 0 min 71 W/m 39,7 km/h (6 Bft) 91,30 %
19.03.2017 12:42 11,8 C 12,2 C 11,1 C 93 % 0 lf 1007,2 hPa 0,0 l/m 0 min 0 min 80 W/m 35,6 km/h (5 Bft) 95,74 %
19.03.2017 12:44 11,8 C 12,2 C 11,1 C 94 % 0 lf 1007,2 hPa 0,0 l/m 0 min 0 min 93 W/m 29,3 km/h (5 Bft) 93,62 %
19.03.2017 12:46 11,8 C 12,2 C 11,1 C 93 % 1 lf 1007,2 hPa 0,0 l/m 0 min 0 min 105 W/m 39,7 km/h (6 Bft) 93,62 %
19.03.2017 12:48 11,8 C 12,2 C 11,1 C 93 % 2 lf 1007,2 hPa 0,0 l/m 0 min 2 min 139 W/m 39,7 km/h (6 Bft) 93,62 %
19.03.2017 12:50 11,8 C 12,2 C 11,1 C 94 % 1 lf 1007,2 hPa 0,0 l/m 0 min 0 min 131 W/m 52,3 km/h (7 Bft) 95,74 %
19.03.2017 12:52 11,8 C 12,8 C 11,1 C 94 % 0 lf 1007,3 hPa 0,0 l/m 0 min 0 min 142 W/m 35,6 km/h (5 Bft) 95,65 %
19.03.2017 12:54 11,9 C 12,8 C 11,7 C 94 % 0 lf 1007,4 hPa 0,0 l/m 0 min 0 min 193 W/m 35,6 km/h (5 Bft) 95,74 %
19.03.2017 12:56 11,9 C 12,8 C 11,7 C 94 % 3 lf 1007,4 hPa 0,0 l/m 0 min 2 min 148 W/m 35,6 km/h (5 Bft) 95,74 %
19.03.2017 12:58 11,9 C 12,8 C 11,7 C 94 % 1 lf 1007,4 hPa 0,0 l/m 0 min 0 min 182 W/m 37,7 km/h (5 Bft) 95,74 %
19.03.2017 13:00 11,9 C 12,8 C 11,1 C 94 % 2 lf 1007,5 hPa 0,0 l/m 0 min 0 min 138 W/m 33,5 km/h (5 Bft) 95,74 %
19.03.2017 13:02 11,9 C 12,8 C 11,1 C 94 % 2 lf 1007,5 hPa 0,0 l/m 0 min 0 min 103 W/m 29,3 km/h (5 Bft) 95,74 %
19.03.2017 13:04 11,9 C 12,8 C 11,1 C 94 % 1 lf 1007,5 hPa 0,0 l/m 0 min 0 min 110 W/m 27,2 km/h (4 Bft) 95,65 %
19.03.2017 13:06 11,9 C 12,8 C 11,1 C 94 % 1 lf 1007,5 hPa 0,0 l/m 0 min 0 min 109 W/m 29,3 km/h (5 Bft) 95,74 %
19.03.2017 13:08 12,0 C 12,8 C 11,1 C 94 % 0 lf 1007,6 hPa 0,0 l/m 0 min 0 min 106 W/m 31,4 km/h (5 Bft) 95,74 %
19.03.2017 13:10 11,9 C 12,8 C 11,1 C 94 % 2 lf 1007,6 hPa 0,0 l/m 0 min 2 min 160 W/m 31,4 km/h (5 Bft) 93,62 %
19.03.2017 13:12 11,9 C 13,3 C 11,7 C 94 % 0 lf 1007,6 hPa 0,0 l/m 0 min 0 min 200 W/m 37,7 km/h (5 Bft) 93,62 %
19.03.2017 13:14 12,0 C 13,3 C 11,7 C 94 % 1 lf 1007,7 hPa 0,0 l/m 0 min 0 min 166 W/m 50,2 km/h (7 Bft) 93,62 %
19.03.2017 13:16 12,0 C 12,8 C 11,7 C 93 % 2 lf 1007,6 hPa 0,0 l/m 0 min 2 min 121 W/m 33,5 km/h (5 Bft) 97,83 %
19.03.2017 13:18 12,0 C 13,3 C 11,7 C 94 % 0 lf 1007,6 hPa 0,0 l/m 0 min 2 min 179 W/m 37,7 km/h (5 Bft) 100,00 %
19.03.2017 13:20 12,1 C 13,3 C 12,2 C 93 % 0 lf 1007,6 hPa 0,0 l/m 0 min 0 min 192 W/m 27,2 km/h (4 Bft) 97,87 %
19.03.2017 13:22 12,1 C 13,3 C 11,7 C 93 % 0 lf 1007,6 hPa 0,0 l/m 0 min 0 min 159 W/m 37,7 km/h (5 Bft) 100,00 %
19.03.2017 13:24 12,1 C 13,3 C 12,2 C 93 % 0 lf 1007,6 hPa 0,0 l/m 0 min 0 min 196 W/m 43,9 km/h (6 Bft) 97,87 %
19.03.2017 13:26 12,1 C 13,3 C 12,2 C 93 % 0 lf 1007,5 hPa 0,0 l/m 0 min 0 min 224 W/m 46,0 km/h (6 Bft) 100,00 %
19.03.2017 13:28 12,2 C 13,9 C 12,2 C 93 % 2 lf 1007,5 hPa 0,0 l/m 0 min 0 min 215 W/m 31,4 km/h (5 Bft) 97,87 %
19.03.2017 13:30 12,2 C 13,9 C 12,2 C 93 % 0 lf 1007,5 hPa 0,0 l/m 0 min 2 min 223 W/m 37,7 km/h (5 Bft) 93,62 %
19.03.2017 13:32 12,2 C 13,9 C 12,2 C 93 % 0 lf 1007,4 hPa 0,0 l/m 0 min 0 min 214 W/m 37,7 km/h (5 Bft) 97,87 %
19.03.2017 13:34 12,3 C 13,9 C 12,8 C 92 % 0 lf 1007,3 hPa 0,0 l/m 0 min 0 min 257 W/m 35,6 km/h (5 Bft) 97,87 %
19.03.2017 13:36 12,3 C 13,9 C 12,8 C 92 % 0 lf 1007,5 hPa 0,0 l/m 0 min 0 min 246 W/m 41,8 km/h (6 Bft) 97,87 %
19.03.2017 13:38 12,3 C 13,9 C 12,8 C 92 % 0 lf 1007,3 hPa 0,0 l/m 0 min 0 min 207 W/m 37,7 km/h (5 Bft) 97,83 %
19.03.2017 13:40 12,4 C 13,9 C 12,8 C 91 % 0 lf 1007,3 hPa 0,0 l/m 0 min 0 min 197 W/m 29,3 km/h (5 Bft) 93,62 %
19.03.2017 13:42 12,4 C 13,9 C 12,8 C 91 % 0 lf 1007,2 hPa 0,0 l/m 0 min 0 min 164 W/m 39,7 km/h (6 Bft) 95,74 %
19.03.2017 13:44 12,4 C 13,9 C 12,2 C 91 % 0 lf 1007,1 hPa 0,0 l/m 0 min 0 min 141 W/m 31,4 km/h (5 Bft) 95,74 %
19.03.2017 13:46 12,4 C 13,3 C 12,2 C 90 % 1 lf 1007,2 hPa 0,0 l/m 0 min 0 min 117 W/m 29,3 km/h (5 Bft) 93,62 %
19.03.2017 13:48 12,4 C 13,3 C 12,2 C 90 % 1 lf 1007,2 hPa 0,0 l/m 0 min 2 min 101 W/m 33,5 km/h (5 Bft) 95,74 %
19.03.2017 13:50 12,5 C 13,9 C 11,7 C 90 % 1 lf 1007,4 hPa 0,0 l/m 0 min 0 min 150 W/m 27,2 km/h (4 Bft) 95,65 %
19.03.2017 13:52 12,5 C 13,9 C 12,2 C 90 % 0 lf 1007,3 hPa 0,0 l/m 0 min 0 min 212 W/m 39,7 km/h (6 Bft) 97,87 %
19.03.2017 13:54 12,4 C 13,9 C 12,2 C 90 % 0 lf 1007,3 hPa 0,0 l/m 0 min 0 min 248 W/m 50,2 km/h (7 Bft) 100,00 %
19.03.2017 13:56 12,5 C 14,4 C 12,8 C 90 % 0 lf 1007,2 hPa 0,0 l/m 0 min 0 min 285 W/m 31,4 km/h (5 Bft) 95,74 %
19.03.2017 13:58 12,5 C 15,0 C 13,3 C 90 % 0 lf 1007,2 hPa 0,0 l/m 2 min 0 min 331 W/m 37,7 km/h (5 Bft) 97,87 %
19.03.2017 14:00 12,6 C 15,6 C 13,3 C 90 % 0 lf 1007,3 hPa 0,0 l/m 2 min 0 min 351 W/m 33,5 km/h (5 Bft) 97,87 %
19.03.2017 14:02 12,6 C 16,7 C 13,9 C 89 % 0 lf 1007,2 hPa 0,0 l/m 2 min 0 min 382 W/m 54,4 km/h (7 Bft) 95,65 %
19.03.2017 14:04 12,7 C 16,1 C 13,9 C 89 % 0 lf 1007,2 hPa 0,0 l/m 2 min 0 min 387 W/m 37,7 km/h (5 Bft) 97,87 %
19.03.2017 14:06 12,8 C 16,1 C 13,9 C 88 % 0 lf 1007,1 hPa 0,0 l/m 2 min 0 min 356 W/m 33,5 km/h (5 Bft) 97,87 %
19.03.2017 14:08 12,8 C 15,6 C 13,9 C 88 % 0 lf 1007,1 hPa 0,0 l/m 2 min 0 min 354 W/m 37,7 km/h (5 Bft) 95,74 %
19.03.2017 14:10 12,9 C 15,6 C 13,9 C 87 % 0 lf 1007,1 hPa 0,0 l/m 2 min 0 min 328 W/m 41,8 km/h (6 Bft) 97,87 %
19.03.2017 14:12 12,9 C 15,0 C 13,9 C 87 % 0 lf 1007,0 hPa 0,0 l/m 2 min 0 min 304 W/m 37,7 km/h (5 Bft) 100,00 %
19.03.2017 14:14 13,0 C 14,4 C 13,9 C 86 % 0 lf 1007,0 hPa 0,0 l/m 0 min 0 min 225 W/m 43,9 km/h (6 Bft) 97,83 %
19.03.2017 14:16 13,0 C 13,9 C 12,8 C 86 % 0 lf 1007,1 hPa 0,0 l/m 0 min 0 min 156 W/m 43,9 km/h (6 Bft) 100,00 %
19.03.2017 14:18 12,9 C 13,9 C 12,8 C 86 % 0 lf 1007,2 hPa 0,0 l/m 0 min 0 min 91 W/m 29,3 km/h (5 Bft) 97,87 %
19.03.2017 14:20 12,9 C 13,3 C 12,2 C 86 % 0 lf 1007,1 hPa 0,0 l/m 0 min 0 min 77 W/m 33,5 km/h (5 Bft) 97,87 %
19.03.2017 14:22 12,9 C 13,3 C 12,2 C 86 % 0 lf 1007,1 hPa 0,0 l/m 0 min 0 min 80 W/m 33,5 km/h (5 Bft) 97,92 %
19.03.2017 14:24 12,8 C 13,3 C 12,2 C 86 % 0 lf 1007,1 hPa 0,0 l/m 0 min 0 min 87 W/m 33,5 km/h (5 Bft) 100,00 %
19.03.2017 14:26 12,8 C 13,3 C 11,7 C 86 % 0 lf 1007,2 hPa 0,0 l/m 0 min 0 min 85 W/m 31,4 km/h (5 Bft) 100,00 %
19.03.2017 14:28 12,7 C 13,3 C 12,2 C 86 % 0 lf 1007,2 hPa 0,0 l/m 0 min 0 min 128 W/m 35,6 km/h (5 Bft) 97,87 %
19.03.2017 14:30 12,7 C 13,9 C 12,2 C 86 % 0 lf 1007,0 hPa 0,0 l/m 0 min 0 min 174 W/m 41,8 km/h (6 Bft) 97,87 %
19.03.2017 14:32 12,7 C 13,9 C 12,2 C 86 % 0 lf 1007,0 hPa 0,0 l/m 0 min 0 min 120 W/m 39,7 km/h (6 Bft) 100,00 %
19.03.2017 14:34 12,7 C 13,3 C 12,2 C 86 % 0 lf 1007,0 hPa 0,0 l/m 0 min 0 min 103 W/m 37,7 km/h (5 Bft) 97,87 %
19.03.2017 14:36 12,7 C 13,9 C 12,2 C 85 % 0 lf 1007,0 hPa 0,0 l/m 0 min 0 min 166 W/m 37,7 km/h (5 Bft) 93,62 %
19.03.2017 14:38 12,7 C 13,9 C 12,8 C 85 % 0 lf 1006,9 hPa 0,0 l/m 0 min 0 min 221 W/m 41,8 km/h (6 Bft) 89,13 %
19.03.2017 14:40 12,7 C 14,4 C 12,8 C 85 % 0 lf 1006,9 hPa 0,0 l/m 0 min 0 min 239 W/m 23,0 km/h (4 Bft) 97,87 %
19.03.2017 14:42 12,7 C 14,4 C 12,8 C 85 % 0 lf 1006,9 hPa 0,0 l/m 0 min 0 min 225 W/m 41,8 km/h (6 Bft) 93,62 %
19.03.2017 14:44 12,7 C 14,4 C 12,8 C 84 % 0 lf 1007,0 hPa 0,0 l/m 0 min 0 min 223 W/m 46,0 km/h (6 Bft) 97,87 %
19.03.2017 14:46 12,7 C 15,0 C 12,8 C 84 % 0 lf 1006,9 hPa 0,0 l/m 2 min 0 min 265 W/m 37,7 km/h (5 Bft) 95,74 %
19.03.2017 14:48 12,8 C 15,6 C 13,3 C 83 % 0 lf 1006,9 hPa 0,0 l/m 2 min 0 min 428 W/m 46,0 km/h (6 Bft) 97,87 %
19.03.2017 14:50 12,8 C 14,4 C 12,8 C 83 % 0 lf 1006,9 hPa 0,0 l/m 0 min 0 min 244 W/m 46,0 km/h (6 Bft) 93,48 %
19.03.2017 14:52 12,9 C 14,4 C 12,8 C 83 % 0 lf 1006,8 hPa 0,0 l/m 0 min 0 min 179 W/m 33,5 km/h (5 Bft) 97,14 %
19.03.2017 14:54 12,9 C 13,9 C 12,8 C 82 % 0 lf 1006,8 hPa 0,0 l/m 0 min 0 min 155 W/m 33,5 km/h (5 Bft) 97,87 %
19.03.2017 14:56 12,9 C 13,9 C 12,8 C 82 % 0 lf 1006,9 hPa 0,0 l/m 0 min 0 min 131 W/m 23,0 km/h (4 Bft) 93,62 %
19.03.2017 14:58 12,9 C 13,3 C 12,2 C 82 % 0 lf 1006,9 hPa 0,0 l/m 0 min 0 min 105 W/m 39,7 km/h (6 Bft) 93,62 %
19.03.2017 15:00 12,9 C 13,3 C 12,2 C 82 % 0 lf 1007,0 hPa 0,0 l/m 0 min 0 min 97 W/m 39,7 km/h (6 Bft) 95,74 %
19.03.2017 15:02 12,9 C 13,3 C 12,2 C 82 % 0 lf 1007,0 hPa 0,0 l/m 0 min 0 min 123 W/m 33,5 km/h (5 Bft) 95,74 %
19.03.2017 15:04 12,8 C 13,9 C 12,2 C 82 % 0 lf 1007,1 hPa 0,0 l/m 0 min 0 min 164 W/m 37,7 km/h (5 Bft) 95,74 %
19.03.2017 15:06 12,8 C 13,9 C 12,2 C 82 % 0 lf 1007,1 hPa 0,0 l/m 0 min 0 min 162 W/m 37,7 km/h (5 Bft) 95,65 %
19.03.2017 15:08 12,8 C 13,9 C 12,2 C 81 % 0 lf 1007,1 hPa 0,0 l/m 0 min 0 min 173 W/m 43,9 km/h (6 Bft) 97,87 %
19.03.2017 15:10 12,7 C 13,9 C 12,2 C 81 % 0 lf 1007,1 hPa 0,0 l/m 0 min 0 min 150 W/m 50,2 km/h (7 Bft) 93,62 %
19.03.2017 15:12 12,7 C 13,3 C 12,2 C 80 % 0 lf 1007,1 hPa 0,0 l/m 0 min 0 min 148 W/m 41,8 km/h (6 Bft) 93,62 %
19.03.2017 15:14 12,7 C 13,9 C 12,2 C 80 % 0 lf 1007,1 hPa 0,0 l/m 0 min 0 min 175 W/m 37,7 km/h (5 Bft) 93,62 %
19.03.2017 15:16 12,7 C 13,9 C 12,2 C 80 % 0 lf 1007,1 hPa 0,0 l/m 0 min 0 min 194 W/m 31,4 km/h (5 Bft) 97,83 %
19.03.2017 15:18 12,7 C 14,4 C 12,8 C 81 % 0 lf 1007,0 hPa 0,0 l/m 0 min 0 min 209 W/m 31,4 km/h (5 Bft) 95,74 %
19.03.2017 15:20 12,7 C 14,4 C 12,8 C 81 % 0 lf 1007,0 hPa 0,0 l/m 0 min 0 min 201 W/m 27,2 km/h (4 Bft) 95,74 %
19.03.2017 15:22 12,7 C 14,4 C 12,8 C 81 % 0 lf 1007,0 hPa 0,0 l/m 0 min 0 min 217 W/m 31,4 km/h (5 Bft) 100,00 %
19.03.2017 15:24 12,7 C 14,4 C 12,8 C 80 % 0 lf 1007,0 hPa 0,0 l/m 0 min 0 min 180 W/m 33,5 km/h (5 Bft) 100,00 %
19.03.2017 15:26 12,7 C 13,9 C 12,8 C 80 % 0 lf 1007,0 hPa 0,0 l/m 0 min 0 min 141 W/m 37,7 km/h (5 Bft) 97,87 %
19.03.2017 15:28 12,7 C 13,9 C 12,2 C 80 % 0 lf 1007,0 hPa 0,0 l/m 0 min 0 min 146 W/m 29,3 km/h (5 Bft) 91,30 %
19.03.2017 15:30 12,7 C 13,9 C 12,2 C 80 % 0 lf 1007,0 hPa 0,0 l/m 0 min 0 min 148 W/m 29,3 km/h (5 Bft) 95,74 %
19.03.2017 15:32 12,7 C 13,9 C 12,2 C 80 % 0 lf 1007,0 hPa 0,0 l/m 0 min 0 min 159 W/m 29,3 km/h (5 Bft) 95,74 %
19.03.2017 15:34 12,7 C 13,9 C 12,2 C 80 % 0 lf 1006,9 hPa 0,0 l/m 0 min 0 min 160 W/m 29,3 km/h (5 Bft) 93,62 %
19.03.2017 15:36 12,7 C 13,9 C 12,8 C 80 % 0 lf 1007,0 hPa 0,0 l/m 0 min 0 min 163 W/m 43,9 km/h (6 Bft) 91,49 %
19.03.2017 15:38 12,7 C 13,9 C 12,2 C 79 % 0 lf 1006,9 hPa 0,0 l/m 0 min 0 min 134 W/m 35,6 km/h (5 Bft) 91,49 %
19.03.2017 15:40 12,7 C 13,9 C 12,2 C 79 % 0 lf 1006,9 hPa 0,0 l/m 0 min 0 min 158 W/m 37,7 km/h (5 Bft) 95,65 %
19.03.2017 15:42 12,7 C 13,9 C 12,2 C 80 % 0 lf 1006,9 hPa 0,0 l/m 0 min 0 min 181 W/m 31,4 km/h (5 Bft) 97,87 %
19.03.2017 15:44 12,7 C 14,4 C 12,8 C 80 % 0 lf 1006,9 hPa 0,0 l/m 0 min 0 min 205 W/m 33,5 km/h (5 Bft) 95,74 %
19.03.2017 15:46 12,7 C 14,4 C 12,8 C 80 % 0 lf 1006,9 hPa 0,0 l/m 0 min 0 min 203 W/m 39,7 km/h (6 Bft) 91,49 %
19.03.2017 15:48 12,7 C 13,9 C 12,8 C 79 % 0 lf 1007,0 hPa 0,0 l/m 0 min 0 min 196 W/m 39,7 km/h (6 Bft) 93,62 %
19.03.2017 15:50 12,7 C 13,9 C 12,8 C 79 % 0 lf 1007,0 hPa 0,0 l/m 0 min 0 min 184 W/m 35,6 km/h (5 Bft) 87,23 %
19.03.2017 15:52 12,7 C 13,9 C 12,8 C 79 % 0 lf 1007,0 hPa 0,0 l/m 0 min 0 min 165 W/m 33,5 km/h (5 Bft) 91,30 %
19.03.2017 15:54 12,7 C 13,9 C 12,2 C 79 % 0 lf 1007,1 hPa 0,0 l/m 0 min 0 min 152 W/m 41,8 km/h (6 Bft) 91,49 %
19.03.2017 15:56 12,7 C 13,3 C 12,2 C 79 % 0 lf 1007,1 hPa 0,0 l/m 0 min 0 min 141 W/m 39,7 km/h (6 Bft) 91,49 %
19.03.2017 15:58 12,7 C 13,3 C 12,2 C 79 % 0 lf 1007,0 hPa 0,0 l/m 0 min 0 min 138 W/m 41,8 km/h (6 Bft) 91,49 %
19.03.2017 16:00 12,7 C 13,9 C 12,2 C 79 % 0 lf 1007,0 hPa 0,0 l/m 0 min 0 min 132 W/m 31,4 km/h (5 Bft) 93,62 %
19.03.2017 16:02 12,7 C 13,9 C 12,2 C 80 % 0 lf 1007,0 hPa 0,0 l/m 0 min 0 min 137 W/m 35,6 km/h (5 Bft) 91,49 %
19.03.2017 16:04 12,7 C 13,9 C 12,2 C 80 % 0 lf 1007,0 hPa 0,0 l/m 0 min 0 min 150 W/m 33,5 km/h (5 Bft) 93,48 %
19.03.2017 16:06 12,7 C 13,9 C 12,2 C 80 % 0 lf 1006,9 hPa 0,0 l/m 0 min 0 min 138 W/m 46,0 km/h (6 Bft) 91,49 %
19.03.2017 16:08 12,8 C 13,9 C 12,2 C 80 % 0 lf 1006,9 hPa 0,0 l/m 0 min 0 min 128 W/m 37,7 km/h (5 Bft) 95,74 %
19.03.2017 16:10 12,7 C 13,9 C 12,2 C 80 % 0 lf 1006,9 hPa 0,0 l/m 0 min 0 min 134 W/m 33,5 km/h (5 Bft) 93,62 %
19.03.2017 16:12 12,7 C 13,9 C 12,2 C 80 % 0 lf 1006,9 hPa 0,0 l/m 0 min 0 min 124 W/m 33,5 km/h (5 Bft) 93,62 %
19.03.2017 16:14 12,7 C 13,9 C 12,2 C 80 % 0 lf 1006,9 hPa 0,0 l/m 0 min 0 min 170 W/m 29,3 km/h (5 Bft) 95,74 %
19.03.2017 16:16 12,8 C 13,9 C 12,2 C 80 % 0 lf 1007,0 hPa 0,0 l/m 0 min 0 min 141 W/m 29,3 km/h (5 Bft) 97,83 %
19.03.2017 16:18 12,8 C 13,9 C 12,2 C 80 % 0 lf 1007,0 hPa 0,0 l/m 0 min 0 min 146 W/m 31,4 km/h (5 Bft) 95,74 %
19.03.2017 16:20 12,8 C 13,9 C 12,2 C 80 % 0 lf 1007,0 hPa 0,0 l/m 0 min 0 min 114 W/m 31,4 km/h (5 Bft) 91,49 %
19.03.2017 16:22 12,8 C 13,9 C 12,2 C 80 % 0 lf 1007,0 hPa 0,0 l/m 0 min 0 min 100 W/m 39,7 km/h (6 Bft) 95,74 %
19.03.2017 16:24 12,8 C 13,9 C 12,2 C 80 % 0 lf 1007,0 hPa 0,0 l/m 0 min 0 min 156 W/m 33,5 km/h (5 Bft) 97,87 %
19.03.2017 16:26 12,8 C 13,9 C 12,2 C 80 % 0 lf 1007,0 hPa 0,0 l/m 0 min 0 min 117 W/m 31,4 km/h (5 Bft) 95,65 %
19.03.2017 16:28 12,8 C 13,9 C 12,2 C 80 % 0 lf 1007,0 hPa 0,0 l/m 0 min 0 min 97 W/m 31,4 km/h (5 Bft) 97,87 %
19.03.2017 16:30 12,8 C 14,4 C 12,2 C 80 % 0 lf 1007,0 hPa 0,0 l/m 0 min 0 min 111 W/m 27,2 km/h (4 Bft) 95,74 %
19.03.2017 16:32 12,8 C 15,0 C 12,2 C 80 % 0 lf 1007,0 hPa 0,0 l/m 0 min 0 min 150 W/m 33,5 km/h (5 Bft) 95,74 %
19.03.2017 16:34 12,9 C 14,4 C 12,2 C 80 % 0 lf 1007,0 hPa 0,0 l/m 0 min 0 min 151 W/m 25,1 km/h (4 Bft) 95,74 %
19.03.2017 16:36 12,9 C 14,4 C 12,2 C 79 % 0 lf 1007,0 hPa 0,0 l/m 0 min 0 min 129 W/m 43,9 km/h (6 Bft) 97,87 %
19.03.2017 16:38 12,9 C 13,9 C 12,2 C 79 % 0 lf 1006,9 hPa 0,0 l/m 0 min 0 min 123 W/m 37,7 km/h (5 Bft) 95,65 %
19.03.2017 16:40 12,9 C 13,9 C 12,2 C 79 % 0 lf 1007,0 hPa 0,0 l/m 0 min 0 min 107 W/m 29,3 km/h (5 Bft) 95,74 %
19.03.2017 16:42 12,9 C 13,9 C 12,2 C 79 % 0 lf 1007,0 hPa 0,0 l/m 0 min 0 min 85 W/m 35,6 km/h (5 Bft) 95,74 %
19.03.2017 16:44 12,9 C 13,3 C 12,2 C 79 % 0 lf 1007,1 hPa 0,0 l/m 0 min 0 min 86 W/m 25,1 km/h (4 Bft) 97,87 %
19.03.2017 16:46 12,9 C 13,3 C 12,2 C 79 % 0 lf 1007,2 hPa 0,0 l/m 0 min 0 min 90 W/m 35,6 km/h (5 Bft) 95,74 %
19.03.2017 16:48 12,8 C 13,3 C 12,2 C 79 % 0 lf 1007,6 hPa 0,0 l/m 0 min 0 min 83 W/m 27,2 km/h (4 Bft) 100,00 %
19.03.2017 16:50 12,8 C 13,3 C 11,7 C 79 % 0 lf 1007,3 hPa 0,0 l/m 0 min 0 min 78 W/m 41,8 km/h (6 Bft) 100,00 %
19.03.2017 16:52 12,8 C 13,3 C 11,7 C 78 % 0 lf 1007,1 hPa 0,0 l/m 0 min 0 min 91 W/m 43,9 km/h (6 Bft) 97,87 %
19.03.2017 16:54 12,8 C 13,3 C 11,7 C 78 % 0 lf 1007,1 hPa 0,0 l/m 0 min 0 min 86 W/m 39,7 km/h (6 Bft) 95,74 %
19.03.2017 16:56 12,8 C 13,3 C 11,7 C 78 % 0 lf 1007,1 hPa 0,0 l/m 0 min 0 min 67 W/m 41,8 km/h (6 Bft) 93,62 %
19.03.2017 16:58 12,7 C 13,3 C 11,7 C 78 % 0 lf 1007,1 hPa 0,0 l/m 0 min 0 min 55 W/m 43,9 km/h (6 Bft) 97,87 %
19.03.2017 17:00 12,7 C 13,3 C 11,7 C 78 % 0 lf 1007,1 hPa 0,0 l/m 0 min 0 min 62 W/m 27,2 km/h (4 Bft) 97,87 %
19.03.2017 17:02 12,7 C 13,3 C 11,7 C 78 % 0 lf 1007,2 hPa 0,0 l/m 0 min 0 min 63 W/m 31,4 km/h (5 Bft) 97,83 %
19.03.2017 17:04 12,7 C 13,3 C 11,7 C 78 % 0 lf 1007,3 hPa 0,0 l/m 0 min 0 min 61 W/m 41,8 km/h (6 Bft) 95,74 %
19.03.2017 17:06 12,7 C 13,3 C 11,7 C 78 % 0 lf 1007,1 hPa 0,0 l/m 0 min 0 min 63 W/m 29,3 km/h (5 Bft) 100,00 %
19.03.2017 17:08 12,7 C 12,8 C 11,7 C 78 % 0 lf 1007,1 hPa 0,0 l/m 0 min 0 min 63 W/m 39,7 km/h (6 Bft) 100,00 %
19.03.2017 17:10 12,6 C 13,3 C 11,7 C 78 % 0 lf 1007,0 hPa 0,0 l/m 0 min 0 min 73 W/m 43,9 km/h (6 Bft) 97,87 %
19.03.2017 17:12 12,6 C 13,3 C 11,7 C 78 % 0 lf 1007,0 hPa 0,0 l/m 0 min 0 min 78 W/m 41,8 km/h (6 Bft) 95,74 %
19.03.2017 17:14 12,6 C 13,3 C 11,7 C 77 % 0 lf 1007,1 hPa 0,0 l/m 0 min 0 min 79 W/m 37,7 km/h (5 Bft) 97,83 %
19.03.2017 17:16 12,6 C 13,3 C 11,7 C 77 % 0 lf 1007,1 hPa 0,0 l/m 0 min 0 min 70 W/m 33,5 km/h (5 Bft) 100,00 %
19.03.2017 17:18 12,6 C 12,8 C 11,7 C 78 % 0 lf 1007,1 hPa 0,0 l/m 0 min 0 min 58 W/m 35,6 km/h (5 Bft) 100,00 %
19.03.2017 17:20 12,6 C 12,8 C 11,7 C 78 % 0 lf 1007,0 hPa 0,0 l/m 0 min 0 min 49 W/m 33,5 km/h (5 Bft) 100,00 %
19.03.2017 17:22 12,6 C 12,8 C 11,7 C 78 % 0 lf 1007,0 hPa 0,0 l/m 0 min 0 min 40 W/m 37,7 km/h (5 Bft) 95,74 %
19.03.2017 17:24 12,6 C 12,8 C 11,1 C 78 % 0 lf 1007,1 hPa 0,0 l/m 0 min 0 min 41 W/m 52,3 km/h (7 Bft) 91,49 %
19.03.2017 17:26 12,6 C 12,8 C 11,1 C 77 % 0 lf 1007,0 hPa 0,0 l/m 0 min 0 min 43 W/m 41,8 km/h (6 Bft) 95,65 %
19.03.2017 17:28 12,6 C 12,8 C 11,1 C 78 % 0 lf 1007,1 hPa 0,0 l/m 0 min 0 min 46 W/m 31,4 km/h (5 Bft) 97,87 %
19.03.2017 17:30 12,5 C 12,8 C 11,1 C 78 % 0 lf 1007,1 hPa 0,0 l/m 0 min 0 min 43 W/m 43,9 km/h (6 Bft) 95,74 %
19.03.2017 17:32 12,5 C 12,8 C 11,1 C 77 % 0 lf 1007,1 hPa 0,0 l/m 0 min 0 min 40 W/m 41,8 km/h (6 Bft) 97,87 %
19.03.2017 17:34 12,5 C 12,8 C 11,1 C 77 % 0 lf 1007,0 hPa 0,0 l/m 0 min 0 min 38 W/m 31,4 km/h (5 Bft) 97,87 %
19.03.2017 17:36 12,5 C 12,8 C 11,1 C 78 % 0 lf 1007,0 hPa 0,0 l/m 0 min 0 min 33 W/m 23,0 km/h (4 Bft) 93,48 %
19.03.2017 17:38 12,5 C 12,8 C 11,1 C 78 % 0 lf 1007,1 hPa 0,0 l/m 0 min 0 min 35 W/m 31,4 km/h (5 Bft) 95,74 %
19.03.2017 17:40 12,5 C 12,8 C 11,1 C 78 % 0 lf 1007,0 hPa 0,0 l/m 0 min 0 min 39 W/m 31,4 km/h (5 Bft) 93,62 %
19.03.2017 17:42 12,4 C 12,8 C 11,1 C 78 % 0 lf 1007,0 hPa 0,0 l/m 0 min 0 min 32 W/m 37,7 km/h (5 Bft) 95,74 %
19.03.2017 17:44 12,4 C 12,8 C 11,1 C 78 % 0 lf 1007,2 hPa 0,0 l/m 0 min 0 min 26 W/m 23,0 km/h (4 Bft) 95,74 %
19.03.2017 17:46 12,4 C 12,8 C 11,1 C 78 % 0 lf 1007,2 hPa 0,0 l/m 0 min 0 min 25 W/m 35,6 km/h (5 Bft) 91,49 %
19.03.2017 17:48 12,4 C 12,8 C 11,1 C 78 % 0 lf 1007,2 hPa 0,0 l/m 0 min 0 min 25 W/m 37,7 km/h (5 Bft) 97,87 %
19.03.2017 17:50 12,4 C 12,8 C 11,1 C 78 % 0 lf 1007,1 hPa 0,0 l/m 0 min 0 min 22 W/m 25,1 km/h (4 Bft) 93,48 %
19.03.2017 17:52 12,4 C 12,8 C 11,1 C 78 % 0 lf 1007,1 hPa 0,0 l/m 0 min 0 min 19 W/m 33,5 km/h (5 Bft) 91,49 %
19.03.2017 17:54 12,4 C 12,8 C 11,1 C 78 % 0 lf 1007,2 hPa 0,0 l/m 0 min 0 min 22 W/m 41,8 km/h (6 Bft) 93,62 %
19.03.2017 17:56 12,3 C 12,8 C 11,1 C 78 % 0 lf 1007,1 hPa 0,0 l/m 0 min 0 min 23 W/m 56,5 km/h (7 Bft) 95,74 %
19.03.2017 17:58 12,3 C 12,8 C 11,1 C 78 % 0 lf 1007,1 hPa 0,0 l/m 0 min 0 min 23 W/m 33,5 km/h (5 Bft) 93,62 %
19.03.2017 18:00 12,3 C 12,8 C 11,1 C 78 % 0 lf 1007,1 hPa 0,0 l/m 0 min 0 min 23 W/m 27,2 km/h (4 Bft) 93,62 %
19.03.2017 18:02 12,3 C 12,8 C 11,1 C 78 % 0 lf 1007,0 hPa 0,0 l/m 0 min 0 min 23 W/m 29,3 km/h (5 Bft) 95,65 %
19.03.2017 18:06 12,3 C 12,8 C 11,1 C 78 % 0 lf 1007,0 hPa 0,0 l/m 0 min 0 min 25 W/m 37,7 km/h (5 Bft) 91,35 %
19.03.2017 18:08 12,3 C 12,8 C 11,1 C 78 % 0 lf 1007,0 hPa 0,0 l/m 0 min 0 min 24 W/m 35,6 km/h (5 Bft) 93,48 %
19.03.2017 18:10 12,3 C 12,8 C 11,1 C 78 % 0 lf 1007,1 hPa 0,0 l/m 0 min 0 min 20 W/m 31,4 km/h (5 Bft) 97,87 %
19.03.2017 18:12 12,3 C 12,8 C 11,1 C 78 % 0 lf 1007,3 hPa 0,0 l/m 0 min 0 min 19 W/m 41,8 km/h (6 Bft) 100,00 %
19.03.2017 18:14 12,3 C 12,8 C 11,1 C 78 % 0 lf 1007,2 hPa 0,0 l/m 0 min 0 min 18 W/m 41,8 km/h (6 Bft) 97,87 %
19.03.2017 18:16 12,3 C 12,8 C 11,1 C 78 % 0 lf 1007,2 hPa 0,0 l/m 0 min 0 min 16 W/m 33,5 km/h (5 Bft) 100,00 %
19.03.2017 18:18 12,3 C 12,8 C 10,6 C 78 % 0 lf 1007,2 hPa 0,0 l/m 0 min 0 min 15 W/m 29,3 km/h (5 Bft) 97,87 %
19.03.2017 18:20 12,3 C 12,2 C 10,6 C 78 % 0 lf 1007,3 hPa 0,0 l/m 0 min 0 min 12 W/m 27,2 km/h (4 Bft) 93,48 %
19.03.2017 18:22 12,3 C 12,2 C 10,6 C 78 % 0 lf 1007,4 hPa 0,0 l/m 0 min 0 min 11 W/m 29,3 km/h (5 Bft) 100,00 %
19.03.2017 18:24 12,2 C 12,2 C 10,6 C 78 % 0 lf 1007,5 hPa 0,0 l/m 0 min 0 min 9 W/m 37,7 km/h (5 Bft) 97,87 %
19.03.2017 18:26 12,2 C 12,2 C 10,6 C 78 % 0 lf 1007,6 hPa 0,0 l/m 0 min 0 min 9 W/m 37,7 km/h (5 Bft) 95,74 %
19.03.2017 18:28 12,2 C 12,2 C 10,6 C 78 % 0 lf 1007,5 hPa 0,0 l/m 0 min 0 min 9 W/m 35,6 km/h (5 Bft) 97,87 %
19.03.2017 18:30 12,2 C 12,2 C 10,6 C 78 % 0 lf 1007,7 hPa 0,0 l/m 0 min 0 min 8 W/m 39,7 km/h (6 Bft) 97,87 %
19.03.2017 18:32 12,2 C 12,2 C 10,6 C 77 % 0 lf 1007,7 hPa 0,0 l/m 0 min 0 min 7 W/m 46,0 km/h (6 Bft) 97,87 %
19.03.2017 18:34 12,2 C 12,2 C 10,6 C 77 % 0 lf 1007,7 hPa 0,0 l/m 0 min 0 min 7 W/m 48,1 km/h (6 Bft) 97,87 %
19.03.2017 18:36 12,2 C 12,2 C 10,6 C 77 % 0 lf 1007,7 hPa 0,0 l/m 0 min 0 min 7 W/m 35,6 km/h (5 Bft) 94,29 %
19.03.2017 18:38 12,2 C 12,2 C 10,6 C 77 % 0 lf 1007,8 hPa 0,0 l/m 0 min 0 min 6 W/m 39,7 km/h (6 Bft) 97,87 %
19.03.2017 18:40 12,2 C 12,2 C 10,6 C 77 % 0 lf 1007,7 hPa 0,0 l/m 0 min 0 min 5 W/m 33,5 km/h (5 Bft) 95,74 %
19.03.2017 18:42 12,2 C 12,2 C 10,6 C 77 % 0 lf 1007,7 hPa 0,0 l/m 0 min 0 min 5 W/m 31,4 km/h (5 Bft) 96,30 %
19.03.2017 18:44 12,1 C 12,2 C 10,6 C 77 % 0 lf 1007,7 hPa 0,0 l/m 0 min 0 min 5 W/m 37,7 km/h (5 Bft) 97,83 %
19.03.2017 18:46 12,1 C 12,2 C 10,6 C 77 % 0 lf 1007,7 hPa 0,0 l/m 0 min 0 min 5 W/m 37,7 km/h (5 Bft) 91,49 %
19.03.2017 18:48 12,1 C 12,2 C 10,6 C 77 % 0 lf 1007,7 hPa 0,0 l/m 0 min 0 min 0 W/m 46,0 km/h (6 Bft) 95,74 %
19.03.2017 18:50 12,1 C 12,2 C 10,6 C 77 % 0 lf 1007,7 hPa 0,0 l/m 0 min 0 min 0 W/m 46,0 km/h (6 Bft) 97,87 %
19.03.2017 18:52 12,1 C 12,2 C 10,6 C 77 % 0 lf 1007,7 hPa 0,0 l/m 0 min 0 min 0 W/m 56,5 km/h (7 Bft) 97,87 %
19.03.2017 18:54 12,1 C 12,2 C 10,6 C 77 % 0 lf 1007,7 hPa 0,0 l/m 0 min 0 min 0 W/m 43,9 km/h (6 Bft) 93,62 %
19.03.2017 18:56 12,0 C 12,2 C 10,6 C 77 % 0 lf 1007,7 hPa 0,0 l/m 0 min 0 min 0 W/m 48,1 km/h (6 Bft) 97,83 %
19.03.2017 18:58 12,0 C 12,2 C 10,6 C 77 % 0 lf 1007,7 hPa 0,0 l/m 0 min 0 min 0 W/m 35,6 km/h (5 Bft) 95,74 %
19.03.2017 19:00 12,0 C 12,2 C 10,6 C 77 % 0 lf 1007,8 hPa 0,0 l/m 0 min 0 min 0 W/m 58,6 km/h (7 Bft) 93,62 %
19.03.2017 19:02 12,0 C 12,2 C 10,6 C 77 % 0 lf 1007,7 hPa 0,0 l/m 0 min 0 min 0 W/m 48,1 km/h (6 Bft) 97,87 %
19.03.2017 19:04 12,0 C 12,2 C 10,6 C 76 % 0 lf 1007,7 hPa 0,0 l/m 0 min 0 min 0 W/m 41,8 km/h (6 Bft) 97,87 %
19.03.2017 19:06 12,0 C 12,2 C 10,6 C 76 % 0 lf 1007,7 hPa 0,0 l/m 0 min 0 min 0 W/m 39,7 km/h (6 Bft) 95,92 %
19.03.2017 19:08 11,9 C 12,2 C 10,6 C 76 % 0 lf 1007,7 hPa 0,0 l/m 0 min 0 min 0 W/m 29,3 km/h (5 Bft) 97,87 %
19.03.2017 19:10 11,9 C 12,2 C 10,6 C 76 % 0 lf 1007,6 hPa 0,0 l/m 0 min 0 min 0 W/m 48,1 km/h (6 Bft) 93,62 %
19.03.2017 19:12 11,9 C 12,2 C 10,6 C 76 % 0 lf 1007,7 hPa 0,0 l/m 0 min 0 min 0 W/m 35,6 km/h (5 Bft) 100,00 %
19.03.2017 19:14 11,9 C 12,2 C 10,6 C 76 % 0 lf 1007,7 hPa 0,0 l/m 0 min 0 min 0 W/m 35,6 km/h (5 Bft) 97,87 %
19.03.2017 19:16 11,9 C 12,2 C 10,6 C 76 % 0 lf 1007,8 hPa 0,0 l/m 0 min 0 min 0 W/m 31,4 km/h (5 Bft) 97,87 %
19.03.2017 19:18 11,9 C 12,2 C 10,6 C 76 % 0 lf 1007,8 hPa 0,0 l/m 0 min 0 min 0 W/m 33,5 km/h (5 Bft) 100,00 %
19.03.2017 19:20 11,9 C 12,2 C 10,6 C 77 % 0 lf 1007,7 hPa 0,0 l/m 0 min 0 min 0 W/m 31,4 km/h (5 Bft) 97,87 %
19.03.2017 19:22 11,9 C 12,2 C 10,6 C 77 % 0 lf 1007,7 hPa 0,0 l/m 0 min 0 min 0 W/m 23,0 km/h (4 Bft) 93,75 %
19.03.2017 19:24 11,9 C 12,2 C 10,0 C 77 % 0 lf 1007,7 hPa 0,0 l/m 0 min 0 min 0 W/m 29,3 km/h (5 Bft) 97,87 %
19.03.2017 19:26 11,8 C 12,2 C 10,6 C 77 % 0 lf 1007,7 hPa 0,0 l/m 0 min 0 min 0 W/m 35,6 km/h (5 Bft) 97,87 %
19.03.2017 19:28 11,8 C 12,2 C 10,0 C 77 % 0 lf 1007,7 hPa 0,0 l/m 0 min 0 min 0 W/m 25,1 km/h (4 Bft) 93,62 %
19.03.2017 19:30 11,8 C 12,2 C 10,0 C 77 % 0 lf 1007,8 hPa 0,0 l/m 0 min 0 min 0 W/m 33,5 km/h (5 Bft) 97,83 %
19.03.2017 19:32 11,8 C 12,2 C 10,6 C 77 % 0 lf 1007,7 hPa 0,0 l/m 0 min 0 min 0 W/m 39,7 km/h (6 Bft) 91,84 %
19.03.2017 19:34 11,8 C 12,2 C 10,6 C 77 % 0 lf 1007,7 hPa 0,0 l/m 0 min 0 min 0 W/m 31,4 km/h (5 Bft) 93,62 %
19.03.2017 19:36 11,8 C 12,2 C 10,6 C 77 % 0 lf 1007,8 hPa 0,0 l/m 0 min 0 min 0 W/m 33,5 km/h (5 Bft) 94,44 %
19.03.2017 19:38 11,8 C 12,2 C 10,0 C 77 % 0 lf 1007,8 hPa 0,0 l/m 0 min 0 min 0 W/m 31,4 km/h (5 Bft) 95,74 %
19.03.2017 19:40 11,8 C 12,2 C 10,6 C 77 % 0 lf 1007,8 hPa 0,0 l/m 0 min 0 min 0 W/m 27,2 km/h (4 Bft) 95,74 %
19.03.2017 19:42 11,8 C 12,2 C 10,0 C 77 % 0 lf 1007,8 hPa 0,0 l/m 0 min 0 min 0 W/m 27,2 km/h (4 Bft) 95,74 %
19.03.2017 19:44 11,8 C 12,2 C 10,0 C 77 % 0 lf 1007,8 hPa 0,0 l/m 0 min 0 min 0 W/m 35,6 km/h (5 Bft) 86,96 %
19.03.2017 19:46 11,8 C 11,7 C 10,0 C 77 % 0 lf 1007,8 hPa 0,0 l/m 0 min 0 min 0 W/m 23,0 km/h (4 Bft) 95,74 %
19.03.2017 19:48 11,8 C 11,7 C 10,0 C 77 % 0 lf 1007,8 hPa 0,0 l/m 0 min 0 min 0 W/m 27,2 km/h (4 Bft) 93,62 %
19.03.2017 19:50 11,8 C 11,7 C 10,0 C 77 % 0 lf 1007,8 hPa 0,0 l/m 0 min 0 min 0 W/m 33,5 km/h (5 Bft) 93,62 %
19.03.2017 19:52 11,8 C 11,7 C 10,0 C 78 % 0 lf 1007,9 hPa 0,0 l/m 0 min 0 min 0 W/m 29,3 km/h (5 Bft) 93,62 %
19.03.2017 19:54 11,7 C 11,7 C 10,0 C 77 % 0 lf 1007,9 hPa 0,0 l/m 0 min 0 min 0 W/m 27,2 km/h (4 Bft) 95,74 %
19.03.2017 19:56 11,7 C 11,7 C 10,0 C 78 % 0 lf 1007,9 hPa 0,0 l/m 0 min 0 min 0 W/m 35,6 km/h (5 Bft) 95,65 %
19.03.2017 19:58 11,7 C 11,7 C 10,0 C 78 % 0 lf 1008,0 hPa 0,0 l/m 0 min 0 min 0 W/m 35,6 km/h (5 Bft) 95,74 %
19.03.2017 20:00 11,7 C 11,7 C 10,0 C 78 % 0 lf 1008,2 hPa 0,0 l/m 0 min 0 min 0 W/m 20,9 km/h (4 Bft) 95,74 %
19.03.2017 20:02 11,7 C 11,7 C 10,0 C 78 % 0 lf 1008,2 hPa 0,0 l/m 0 min 0 min 0 W/m 25,1 km/h (4 Bft) 91,49 %
19.03.2017 20:04 11,7 C 11,7 C 10,0 C 79 % 0 lf 1008,2 hPa 0,0 l/m 0 min 0 min 0 W/m 23,0 km/h (4 Bft) 93,62 %
19.03.2017 20:06 11,7 C 11,7 C 10,0 C 79 % 0 lf 1008,2 hPa 0,0 l/m 0 min 0 min 0 W/m 31,4 km/h (5 Bft) 98,18 %
19.03.2017 20:08 11,7 C 11,7 C 10,0 C 79 % 0 lf 1008,1 hPa 0,0 l/m 0 min 0 min 0 W/m 20,9 km/h (4 Bft) 97,87 %
19.03.2017 20:10 11,7 C 11,7 C 10,0 C 79 % 0 lf 1008,1 hPa 0,0 l/m 0 min 0 min 0 W/m 23,0 km/h (4 Bft) 91,49 %
19.03.2017 20:12 11,7 C 11,7 C 10,0 C 79 % 0 lf 1007,9 hPa 0,0 l/m 0 min 0 min 0 W/m 29,3 km/h (5 Bft) 95,74 %
19.03.2017 20:14 11,6 C 11,7 C 10,0 C 79 % 0 lf 1007,9 hPa 0,0 l/m 0 min 0 min 0 W/m 27,2 km/h (4 Bft) 93,62 %
19.03.2017 20:16 11,6 C 11,7 C 10,0 C 79 % 0 lf 1008,0 hPa 0,0 l/m 0 min 0 min 0 W/m 25,1 km/h (4 Bft) 95,65 %
19.03.2017 20:18 11,6 C 11,7 C 10,0 C 79 % 0 lf 1007,9 hPa 0,0 l/m 0 min 0 min 0 W/m 20,9 km/h (4 Bft) 95,74 %
19.03.2017 20:20 11,6 C 11,7 C 10,0 C 79 % 0 lf 1007,9 hPa 0,0 l/m 0 min 0 min 0 W/m 20,9 km/h (4 Bft) 95,74 %
19.03.2017 20:22 11,6 C 11,7 C 10,0 C 79 % 0 lf 1007,8 hPa 0,0 l/m 0 min 0 min 0 W/m 18,8 km/h (3 Bft) 95,74 %
19.03.2017 20:24 11,6 C 11,7 C 10,0 C 79 % 0 lf 1007,8 hPa 0,0 l/m 0 min 0 min 0 W/m 25,1 km/h (4 Bft) 95,74 %
19.03.2017 20:26 11,6 C 11,7 C 10,0 C 80 % 0 lf 1007,8 hPa 0,0 l/m 0 min 0 min 0 W/m 29,3 km/h (5 Bft) 91,49 %
19.03.2017 20:28 11,6 C 11,7 C 10,0 C 80 % 0 lf 1007,8 hPa 0,0 l/m 0 min 0 min 0 W/m 29,3 km/h (5 Bft) 95,65 %
19.03.2017 20:30 11,6 C 11,7 C 10,0 C 80 % 0 lf 1007,8 hPa 0,0 l/m 0 min 0 min 0 W/m 27,2 km/h (4 Bft) 95,74 %
19.03.2017 20:32 11,5 C 11,7 C 10,0 C 80 % 0 lf 1007,8 hPa 0,0 l/m 0 min 0 min 0 W/m 20,9 km/h (4 Bft) 97,92 %
19.03.2017 20:34 11,5 C 11,7 C 10,0 C 80 % 0 lf 1007,8 hPa 0,0 l/m 0 min 0 min 0 W/m 31,4 km/h (5 Bft) 97,87 %
19.03.2017 20:36 11,5 C 11,7 C 10,0 C 80 % 0 lf 1007,8 hPa 0,0 l/m 0 min 0 min 0 W/m 23,0 km/h (4 Bft) 97,30 %
19.03.2017 20:38 11,5 C 11,7 C 10,0 C 80 % 0 lf 1007,8 hPa 0,0 l/m 0 min 0 min 0 W/m 33,5 km/h (5 Bft) 95,74 %
19.03.2017 20:40 11,5 C 11,7 C 10,0 C 80 % 0 lf 1007,8 hPa 0,0 l/m 0 min 0 min 0 W/m 27,2 km/h (4 Bft) 97,87 %
19.03.2017 20:42 11,5 C 11,7 C 10,0 C 80 % 0 lf 1007,8 hPa 0,0 l/m 0 min 0 min 0 W/m 25,1 km/h (4 Bft) 97,87 %
19.03.2017 20:44 11,5 C 11,7 C 10,0 C 80 % 0 lf 1007,8 hPa 0,0 l/m 0 min 0 min 0 W/m 25,1 km/h (4 Bft) 95,65 %
19.03.2017 20:46 11,5 C 11,7 C 10,0 C 80 % 0 lf 1007,8 hPa 0,0 l/m 0 min 0 min 0 W/m 31,4 km/h (5 Bft) 95,74 %
19.03.2017 20:48 11,5 C 11,7 C 10,0 C 80 % 0 lf 1007,7 hPa 0,0 l/m 0 min 0 min 0 W/m 33,5 km/h (5 Bft) 95,74 %
19.03.2017 20:50 11,4 C 11,7 C 10,0 C 80 % 0 lf 1007,8 hPa 0,0 l/m 0 min 0 min 0 W/m 20,9 km/h (4 Bft) 95,74 %
19.03.2017 20:52 11,4 C 11,7 C 10,0 C 80 % 0 lf 1007,9 hPa 0,0 l/m 0 min 0 min 0 W/m 31,4 km/h (5 Bft) 95,74 %
19.03.2017 20:54 11,4 C 11,7 C 10,0 C 80 % 0 lf 1007,9 hPa 0,0 l/m 0 min 0 min 0 W/m 27,2 km/h (4 Bft) 95,65 %
19.03.2017 20:56 11,4 C 11,7 C 10,0 C 80 % 0 lf 1007,9 hPa 0,0 l/m 0 min 0 min 0 W/m 23,0 km/h (4 Bft) 97,87 %
19.03.2017 20:58 11,4 C 11,7 C 10,0 C 80 % 0 lf 1007,8 hPa 0,0 l/m 0 min 0 min 0 W/m 20,9 km/h (4 Bft) 97,87 %
19.03.2017 21:00 11,4 C 11,7 C 10,0 C 80 % 0 lf 1008,0 hPa 0,0 l/m 0 min 0 min 0 W/m 29,3 km/h (5 Bft) 93,62 %
19.03.2017 21:02 11,4 C 11,7 C 10,0 C 80 % 0 lf 1008,0 hPa 0,0 l/m 0 min 0 min 0 W/m 27,2 km/h (4 Bft) 97,87 %
19.03.2017 21:04 11,4 C 11,7 C 10,0 C 80 % 0 lf 1007,9 hPa 0,0 l/m 0 min 0 min 0 W/m 31,4 km/h (5 Bft) 100,00 %
19.03.2017 21:06 11,4 C 11,7 C 10,0 C 80 % 0 lf 1008,0 hPa 0,0 l/m 0 min 0 min 0 W/m 29,3 km/h (5 Bft) 94,44 %
19.03.2017 21:08 11,4 C 11,7 C 10,0 C 80 % 0 lf 1007,9 hPa 0,0 l/m 0 min 0 min 0 W/m 27,2 km/h (4 Bft) 97,87 %
19.03.2017 21:10 11,4 C 11,7 C 10,0 C 80 % 0 lf 1008,0 hPa 0,0 l/m 0 min 0 min 0 W/m 27,2 km/h (4 Bft) 95,74 %
19.03.2017 21:12 11,4 C 11,7 C 10,0 C 80 % 0 lf 1007,9 hPa 0,0 l/m 0 min 0 min 0 W/m 29,3 km/h (5 Bft) 100,00 %
19.03.2017 21:14 11,4 C 11,7 C 10,0 C 80 % 0 lf 1008,0 hPa 0,0 l/m 0 min 0 min 0 W/m 25,1 km/h (4 Bft) 100,00 %
19.03.2017 21:16 11,4 C 11,7 C 10,0 C 80 % 0 lf 1008,1 hPa 0,0 l/m 0 min 0 min 0 W/m 31,4 km/h (5 Bft) 97,87 %
19.03.2017 21:18 11,4 C 11,7 C 10,0 C 80 % 0 lf 1008,0 hPa 0,0 l/m 0 min 0 min 0 W/m 27,2 km/h (4 Bft) 85,11 %
19.03.2017 21:20 11,4 C 11,7 C 10,0 C 80 % 0 lf 1008,0 hPa 0,0 l/m 0 min 0 min 0 W/m 20,9 km/h (4 Bft) 97,87 %
19.03.2017 21:22 11,4 C 11,7 C 10,0 C 80 % 0 lf 1007,9 hPa 0,0 l/m 0 min 0 min 0 W/m 20,9 km/h (4 Bft) 97,87 %
19.03.2017 21:24 11,4 C 11,7 C 10,0 C 80 % 0 lf 1008,0 hPa 0,0 l/m 0 min 0 min 0 W/m 27,2 km/h (4 Bft) 95,74 %
19.03.2017 21:26 11,4 C 11,7 C 10,0 C 80 % 0 lf 1007,9 hPa 0,0 l/m 0 min 0 min 0 W/m 33,5 km/h (5 Bft) 97,83 %
19.03.2017 21:28 11,4 C 11,7 C 10,0 C 81 % 0 lf 1007,8 hPa 0,0 l/m 0 min 0 min 0 W/m 29,3 km/h (5 Bft) 91,49 %
19.03.2017 21:30 11,4 C 11,7 C 10,0 C 80 % 0 lf 1007,8 hPa 0,0 l/m 0 min 0 min 0 W/m 31,4 km/h (5 Bft) 93,62 %
19.03.2017 21:32 11,4 C 11,7 C 10,0 C 81 % 0 lf 1007,8 hPa 0,0 l/m 0 min 0 min 0 W/m 29,3 km/h (5 Bft) 93,75 %
19.03.2017 21:34 11,4 C 11,7 C 10,0 C 81 % 0 lf 1007,9 hPa 0,0 l/m 0 min 0 min 0 W/m 20,9 km/h (4 Bft) 95,74 %
19.03.2017 21:36 11,4 C 11,7 C 10,0 C 81 % 0 lf 1007,9 hPa 0,0 l/m 0 min 0 min 0 W/m 29,3 km/h (5 Bft) 91,49 %
19.03.2017 21:38 11,4 C 11,7 C 10,0 C 81 % 0 lf 1007,9 hPa 0,0 l/m 0 min 0 min 0 W/m 25,1 km/h (4 Bft) 95,65 %
19.03.2017 21:40 11,4 C 11,7 C 10,0 C 81 % 0 lf 1008,1 hPa 0,0 l/m 0 min 0 min 0 W/m 37,7 km/h (5 Bft) 93,62 %
19.03.2017 21:42 11,4 C 11,7 C 10,0 C 81 % 0 lf 1008,0 hPa 0,0 l/m 0 min 0 min 0 W/m 27,2 km/h (4 Bft) 95,83 %
19.03.2017 21:44 11,4 C 11,7 C 10,0 C 81 % 0 lf 1007,9 hPa 0,0 l/m 0 min 0 min 0 W/m 37,7 km/h (5 Bft) 93,62 %
19.03.2017 21:46 11,4 C 11,7 C 10,0 C 81 % 0 lf 1008,0 hPa 0,0 l/m 0 min 0 min 0 W/m 27,2 km/h (4 Bft) 93,62 %
19.03.2017 21:48 11,4 C 11,7 C 10,0 C 81 % 0 lf 1008,1 hPa 0,0 l/m 0 min 0 min 0 W/m 25,1 km/h (4 Bft) 93,48 %
19.03.2017 21:50 11,4 C 11,7 C 10,0 C 81 % 0 lf 1008,1 hPa 0,0 l/m 0 min 0 min 0 W/m 27,2 km/h (4 Bft) 95,74 %
19.03.2017 21:52 11,4 C 11,7 C 10,0 C 81 % 0 lf 1008,1 hPa 0,0 l/m 0 min 0 min 0 W/m 20,9 km/h (4 Bft) 93,62 %
19.03.2017 21:54 11,4 C 11,7 C 10,0 C 81 % 0 lf 1008,1 hPa 0,0 l/m 0 min 0 min 0 W/m 20,9 km/h (4 Bft) 95,74 %
19.03.2017 21:56 11,4 C 11,7 C 10,0 C 81 % 0 lf 1008,0 hPa 0,0 l/m 0 min 0 min 0 W/m 20,9 km/h (4 Bft) 95,74 %
19.03.2017 21:58 11,4 C 11,7 C 10,0 C 81 % 0 lf 1007,9 hPa 0,0 l/m 0 min 0 min 0 W/m 33,5 km/h (5 Bft) 93,62 %
19.03.2017 22:00 11,4 C 11,7 C 10,0 C 81 % 0 lf 1007,9 hPa 0,0 l/m 0 min 0 min 0 W/m 31,4 km/h (5 Bft) 95,65 %
19.03.2017 22:02 11,4 C 11,7 C 10,0 C 81 % 0 lf 1008,0 hPa 0,0 l/m 0 min 0 min 0 W/m 35,6 km/h (5 Bft) 93,75 %
19.03.2017 22:04 11,4 C 11,7 C 10,0 C 81 % 0 lf 1008,1 hPa 0,0 l/m 0 min 0 min 0 W/m 27,2 km/h (4 Bft) 100,00 %
19.03.2017 22:06 11,4 C 11,7 C 10,0 C 81 % 0 lf 1008,1 hPa 0,0 l/m 0 min 0 min 0 W/m 39,7 km/h (6 Bft) 95,74 %
19.03.2017 22:08 11,4 C 11,7 C 10,0 C 81 % 0 lf 1008,2 hPa 0,0 l/m 0 min 0 min 0 W/m 29,3 km/h (5 Bft) 95,74 %
19.03.2017 22:10 11,3 C 11,7 C 10,0 C 81 % 0 lf 1008,1 hPa 0,0 l/m 0 min 0 min 0 W/m 27,2 km/h (4 Bft) 100,00 %
19.03.2017 22:12 11,4 C 11,7 C 10,0 C 81 % 0 lf 1008,2 hPa 0,0 l/m 0 min 0 min 0 W/m 27,2 km/h (4 Bft) 97,87 %
19.03.2017 22:14 11,4 C 11,7 C 10,0 C 82 % 0 lf 1008,1 hPa 0,0 l/m 0 min 0 min 0 W/m 31,4 km/h (5 Bft) 100,00 %
19.03.2017 22:16 11,4 C 11,7 C 10,0 C 82 % 0 lf 1008,2 hPa 0,0 l/m 0 min 0 min 0 W/m 18,8 km/h (3 Bft) 97,83 %
19.03.2017 22:18 11,3 C 11,7 C 10,0 C 82 % 0 lf 1008,2 hPa 0,0 l/m 0 min 0 min 0 W/m 25,1 km/h (4 Bft) 100,00 %
19.03.2017 22:20 11,3 C 11,7 C 10,0 C 82 % 0 lf 1008,2 hPa 0,0 l/m 0 min 0 min 0 W/m 27,2 km/h (4 Bft) 96,23 %
19.03.2017 22:22 11,3 C 11,7 C 10,0 C 82 % 0 lf 1008,3 hPa 0,0 l/m 0 min 0 min 0 W/m 27,2 km/h (4 Bft) 100,00 %
19.03.2017 22:24 11,3 C 11,7 C 10,0 C 82 % 0 lf 1008,2 hPa 0,0 l/m 0 min 0 min 0 W/m 25,1 km/h (4 Bft) 97,87 %
19.03.2017 22:26 11,3 C 11,7 C 10,0 C 82 % 0 lf 1008,3 hPa 0,0 l/m 0 min 0 min 0 W/m 29,3 km/h (5 Bft) 100,00 %
19.03.2017 22:28 11,3 C 11,7 C 10,0 C 82 % 0 lf 1008,3 hPa 0,0 l/m 0 min 0 min 0 W/m 20,9 km/h (4 Bft) 95,65 %
19.03.2017 22:30 11,3 C 11,7 C 10,0 C 82 % 0 lf 1008,3 hPa 0,0 l/m 0 min 0 min 0 W/m 35,6 km/h (5 Bft) 100,00 %
19.03.2017 22:32 11,3 C 11,7 C 10,0 C 82 % 0 lf 1008,3 hPa 0,0 l/m 0 min 0 min 0 W/m 33,5 km/h (5 Bft) 98,15 %
19.03.2017 22:34 11,3 C 11,7 C 10,0 C 83 % 0 lf 1008,2 hPa 0,0 l/m 0 min 0 min 0 W/m 37,7 km/h (5 Bft) 100,00 %
19.03.2017 22:36 11,2 C 11,1 C 10,0 C 83 % 0 lf 1008,3 hPa 0,0 l/m 0 min 0 min 0 W/m 31,4 km/h (5 Bft) 97,96 %
19.03.2017 22:38 11,2 C 11,1 C 10,0 C 83 % 0 lf 1008,3 hPa 0,0 l/m 0 min 0 min 0 W/m 29,3 km/h (5 Bft) 100,00 %
19.03.2017 22:40 11,2 C 11,1 C 10,0 C 83 % 0 lf 1008,3 hPa 0,0 l/m 0 min 0 min 0 W/m 35,6 km/h (5 Bft) 97,87 %
19.03.2017 22:42 11,2 C 11,1 C 9,4 C 83 % 0 lf 1008,3 hPa 0,0 l/m 0 min 0 min 0 W/m 33,5 km/h (5 Bft) 97,87 %
19.03.2017 22:44 11,2 C 11,1 C 9,4 C 84 % 0 lf 1008,3 hPa 0,0 l/m 0 min 0 min 0 W/m 39,7 km/h (6 Bft) 100,00 %
19.03.2017 22:46 11,2 C 11,1 C 9,4 C 84 % 0 lf 1008,3 hPa 0,0 l/m 0 min 0 min 0 W/m 27,2 km/h (4 Bft) 100,00 %
19.03.2017 22:48 11,2 C 11,1 C 9,4 C 84 % 0 lf 1008,3 hPa 0,0 l/m 0 min 0 min 0 W/m 23,0 km/h (4 Bft) 100,00 %
19.03.2017 22:50 11,1 C 11,1 C 9,4 C 84 % 0 lf 1008,3 hPa 0,0 l/m 0 min 0 min 0 W/m 20,9 km/h (4 Bft) 100,00 %
19.03.2017 22:52 11,1 C 11,1 C 9,4 C 84 % 0 lf 1008,4 hPa 0,0 l/m 0 min 0 min 0 W/m 33,5 km/h (5 Bft) 100,00 %
19.03.2017 22:54 11,1 C 11,1 C 9,4 C 84 % 0 lf 1008,4 hPa 0,0 l/m 0 min 0 min 0 W/m 35,6 km/h (5 Bft) 100,00 %
19.03.2017 22:56 11,1 C 11,1 C 9,4 C 85 % 0 lf 1008,3 hPa 0,0 l/m 0 min 0 min 0 W/m 31,4 km/h (5 Bft) 100,00 %
19.03.2017 22:58 11,1 C 11,1 C 9,4 C 85 % 0 lf 1008,4 hPa 0,0 l/m 0 min 0 min 0 W/m 29,3 km/h (5 Bft) 93,62 %
19.03.2017 23:00 11,0 C 11,1 C 9,4 C 85 % 0 lf 1008,3 hPa 0,0 l/m 0 min 0 min 0 W/m 33,5 km/h (5 Bft) 97,83 %
19.03.2017 23:02 11,0 C 11,1 C 9,4 C 85 % 0 lf 1008,4 hPa 0,0 l/m 0 min 0 min 0 W/m 37,7 km/h (5 Bft) 95,92 %
19.03.2017 23:04 10,9 C 11,1 C 9,4 C 85 % 0 lf 1008,4 hPa 0,0 l/m 0 min 0 min 0 W/m 25,1 km/h (4 Bft) 97,87 %
19.03.2017 23:06 10,9 C 10,6 C 9,4 C 86 % 0 lf 1008,4 hPa 0,0 l/m 0 min 0 min 0 W/m 23,0 km/h (4 Bft) 94,74 %
19.03.2017 23:08 10,9 C 10,6 C 9,4 C 86 % 0 lf 1008,5 hPa 0,0 l/m 0 min 0 min 0 W/m 29,3 km/h (5 Bft) 97,87 %
19.03.2017 23:10 10,9 C 10,6 C 9,4 C 86 % 0 lf 1008,4 hPa 0,0 l/m 0 min 0 min 0 W/m 27,2 km/h (4 Bft) 97,87 %
19.03.2017 23:12 10,8 C 10,6 C 9,4 C 86 % 0 lf 1008,5 hPa 0,0 l/m 0 min 0 min 0 W/m 23,0 km/h (4 Bft) 95,74 %
19.03.2017 23:14 10,8 C 10,6 C 9,4 C 87 % 0 lf 1008,5 hPa 0,0 l/m 0 min 0 min 0 W/m 31,4 km/h (5 Bft) 95,65 %
19.03.2017 23:16 10,8 C 10,6 C 9,4 C 87 % 0 lf 1008,5 hPa 0,0 l/m 0 min 0 min 0 W/m 33,5 km/h (5 Bft) 93,62 %
19.03.2017 23:18 10,7 C 10,6 C 9,4 C 87 % 0 lf 1008,5 hPa 0,0 l/m 0 min 0 min 0 W/m 29,3 km/h (5 Bft) 95,74 %
19.03.2017 23:20 10,7 C 10,6 C 8,9 C 87 % 0 lf 1008,4 hPa 0,0 l/m 0 min 0 min 0 W/m 25,1 km/h (4 Bft) 92,00 %
19.03.2017 23:22 10,7 C 10,6 C 8,9 C 87 % 2 lf 1008,5 hPa 0,0 l/m 0 min 0 min 0 W/m 27,2 km/h (4 Bft) 93,02 %
19.03.2017 23:24 10,7 C 10,6 C 8,9 C 88 % 7 lf 1008,4 hPa 0,0 l/m 0 min 2 min 0 W/m 27,2 km/h (4 Bft) 91,49 %
19.03.2017 23:26 10,6 C 10,6 C 8,9 C 88 % 8 lf 1008,4 hPa 0,0 l/m 0 min 0 min 0 W/m 27,2 km/h (4 Bft) 91,30 %
19.03.2017 23:28 10,6 C 10,6 C 8,3 C 88 % 8 lf 1008,4 hPa 0,0 l/m 0 min 0 min 0 W/m 25,1 km/h (4 Bft) 95,74 %
19.03.2017 23:30 10,6 C 10,0 C 8,3 C 89 % 7 lf 1008,5 hPa 0,0 l/m 0 min 0 min 0 W/m 29,3 km/h (5 Bft) 91,49 %
19.03.2017 23:32 10,5 C 10,0 C 8,3 C 89 % 4 lf 1008,4 hPa 0,0 l/m 0 min 0 min 0 W/m 27,2 km/h (4 Bft) 94,00 %
19.03.2017 23:34 10,4 C 10,0 C 8,3 C 89 % 3 lf 1008,4 hPa 0,0 l/m 0 min 0 min 0 W/m 29,3 km/h (5 Bft) 93,62 %
19.03.2017 23:36 10,4 C 10,0 C 8,3 C 89 % 2 lf 1008,4 hPa 0,0 l/m 0 min 0 min 0 W/m 23,0 km/h (4 Bft) 95,65 %
19.03.2017 23:38 10,4 C 10,0 C 8,3 C 90 % 1 lf 1008,5 hPa 0,0 l/m 0 min 0 min 0 W/m 23,0 km/h (4 Bft) 87,23 %
19.03.2017 23:40 10,3 C 10,0 C 8,3 C 90 % 1 lf 1008,5 hPa 0,0 l/m 0 min 0 min 0 W/m 27,2 km/h (4 Bft) 93,62 %
19.03.2017 23:42 10,3 C 10,0 C 8,3 C 90 % 1 lf 1008,5 hPa 0,0 l/m 0 min 0 min 0 W/m 25,1 km/h (4 Bft) 89,36 %
19.03.2017 23:44 10,3 C 10,0 C 8,3 C 90 % 0 lf 1008,5 hPa 0,0 l/m 0 min 0 min 0 W/m 23,0 km/h (4 Bft) 91,49 %
19.03.2017 23:46 10,3 C 10,0 C 8,3 C 90 % 0 lf 1008,5 hPa 0,0 l/m 0 min 0 min 0 W/m 27,2 km/h (4 Bft) 93,62 %
19.03.2017 23:48 10,2 C 10,0 C 8,3 C 90 % 0 lf 1008,5 hPa 0,0 l/m 0 min 0 min 0 W/m 18,8 km/h (3 Bft) 91,30 %
19.03.2017 23:50 10,2 C 10,0 C 8,3 C 91 % 0 lf 1008,5 hPa 0,0 l/m 0 min 0 min 0 W/m 20,9 km/h (4 Bft) 93,62 %
19.03.2017 23:52 10,2 C 10,0 C 8,3 C 91 % 0 lf 1008,5 hPa 0,0 l/m 0 min 0 min 0 W/m 18,8 km/h (3 Bft) 95,74 %
19.03.2017 23:54 10,2 C 10,0 C 8,9 C 91 % 2 lf 1008,5 hPa 0,0 l/m 0 min 0 min 0 W/m 18,8 km/h (3 Bft) 95,74 %
19.03.2017 23:56 10,2 C 10,0 C 8,3 C 91 % 2 lf 1008,4 hPa 0,0 l/m 0 min 0 min 0 W/m 25,1 km/h (4 Bft) 95,74 %
19.03.2017 23:58 10,1 C 10,0 C 8,3 C 91 % 3 lf 1008,5 hPa 0,0 l/m 0 min 0 min 0 W/m 31,4 km/h (5 Bft) 93,48 %
_ Min-Zeit 01:56 00:00 00:00 19:04 09:56 14:52 - - - - 00:52 12:24
Minimum _ 9,4 C 9,4 C 8,3 C 76 % 0 lf 1006,8 hPa - - - - 6,3 km/h (2 Bft) 85,11 %
_ Max-Zeit 14:14 14:02 14:02 01:26 00:00 00:00 00:12 13:58 00:00 14:48 19:00 02:04
Maximum _ 13,0 C 16,7 C 13,9 C 99 % 15 lf 1009,3 hPa 0,2 l/m 2 min 2 min 428 W/m 58,6 km/h
W-SW (7 Bft)
100,00 %
Durchschnitt _ 11,2 C 11,5 C 10,1 C 91 % 6 lf 1008,0 hPa #2,2 l/m #20 min. #4:45 h 96 W/m 28,7 km/h (4 Bft) 95,83 %
© 2017 W. Hausmann